CW9600 Weather Reports


Display with metric or nautical units.
time (UTC)temp
F
wind
direction
speed
MPH
gust
MPH
rain 1hr
in
rain 24hr
in
rain mn
in
humidity
%
barometer
mb
20200713180403 64 275 9.0 13.0 0.00 0.01 0.01 80 1017.3
20200713180305 64 275 11.0 14.0 0.00 0.01 0.01 80 1017.3
20200713180204 64 273 12.0 14.0 0.00 0.01 0.01 80 1017.4
20200713180104 64 276 11.0 14.0 0.00 0.01 0.01 81 1017.3
20200713180006 64 277 11.0 14.0 0.00 0.01 0.01 81 1017.4
20200713175904 64 274 11.0 14.0 0.00 0.01 0.01 80 1017.3
20200713175804 64 273 11.0 14.0 0.00 0.01 0.01 80 1017.4
20200713175705 64 271 10.0 14.0 0.00 0.01 0.01 80 1017.4
20200713175606 64 270 10.0 16.0 0.00 0.01 0.01 80 1017.4
20200713175505 64 270 11.0 18.0 0.00 0.01 0.01 80 1017.3
20200713175406 64 270 12.0 18.0 0.00 0.01 0.01 80 1017.4
20200713175304 64 270 12.0 18.0 0.00 0.01 0.01 80 1017.3
20200713175205 64 272 12.0 18.0 0.00 0.01 0.01 80 1017.3
20200713175104 64 271 12.0 19.0 0.00 0.01 0.01 80 1017.2
20200713175007 65 272 12.0 19.0 0.00 0.01 0.01 80 1017.3
20200713174904 65 271 12.0 18.0 0.00 0.01 0.01 80 1017.3
20200713174804 65 273 12.0 18.0 0.00 0.01 0.01 80 1017.3
20200713174705 65 274 12.0 20.0 0.00 0.01 0.01 80 1017.3
20200713174603 65 276 13.0 20.0 0.00 0.01 0.01 80 1017.3
20200713174504 65 275 13.0 20.0 0.00 0.01 0.01 80 1017.3
20200713174404 65 278 13.0 19.0 0.00 0.01 0.01 81 1017.3
20200713174304 65 274 11.0 18.0 0.00 0.01 0.01 81 1017.4
20200713174204 65 271 11.0 15.0 0.00 0.01 0.01 81 1017.4
20200713174105 65 270 10.0 15.0 0.00 0.01 0.01 81 1017.4
20200713174006 65 273 11.0 16.0 0.00 0.01 0.01 81 1017.4
20200713173904 65 274 10.0 16.0 0.00 0.01 0.01 81 1017.3
20200713173803 65 273 10.0 15.0 0.00 0.01 0.01 82 1017.4
20200713173704 65 273 11.0 15.0 0.00 0.01 0.01 82 1017.4
20200713173604 65 276 12.0 15.0 0.00 0.01 0.01 82 1017.4
20200713173509 65 277 11.0 15.0 0.00 0.01 0.01 82 1017.4
20200713173403 65 278 10.0 13.0 0.00 0.01 0.01 83 1017.3
20200713173306 65 276 10.0 16.0 0.00 0.01 0.01 83 1017.4
20200713173205 65 277 11.0 16.0 0.00 0.01 0.01 83 1017.4
20200713173105 65 279 12.0 16.0 0.00 0.01 0.01 83 1017.4
20200713173003 64 283 12.0 19.0 0.00 0.01 0.01 84 1017.4
20200713172904 64 286 12.0 19.0 0.00 0.01 0.01 84 1017.4
20200713172804 64 289 12.0 18.0 0.00 0.01 0.01 85 1017.4
20200713172704 64 291 11.0 18.0 0.00 0.01 0.01 85 1017.4
20200713172604 64 294 11.0 18.0 0.00 0.01 0.01 86 1017.4
20200713172508 64 297 10.0 16.0 0.00 0.01 0.01 86 1017.4
20200713172403 64 301 11.0 16.0 0.00 0.01 0.01 86 1017.4
20200713172306 64 296 11.0 16.0 0.00 0.01 0.01 86 1017.4
20200713172204 64 291 10.0 15.0 0.00 0.01 0.01 87 1017.4
20200713172106 64 282 9.0 15.0 0.00 0.01 0.01 88 1017.4
20200713172004 65 262 7.0 12.0 0.00 0.01 0.01 88 1017.4
20200713171904 65 247 7.0 11.0 0.00 0.01 0.01 88 1017.4
20200713171804 64 243 8.0 12.0 0.00 0.01 0.01 88 1017.3
20200713171706 64 245 8.0 12.0 0.00 0.01 0.01 88 1017.3
20200713171603 64 242 8.0 12.0 0.00 0.01 0.01 88 1017.3
20200713171506 64 240 8.0 11.0 0.00 0.01 0.01 88 1017.3
20200713171407 64 235 9.0 12.0 0.00 0.01 0.01 87 1017.4
20200713171304 64 234 9.0 14.0 0.00 0.01 0.01 87 1017.3
20200713171204 64 235 9.0 14.0 0.00 0.01 0.01 87 1017.4
20200713171108 64 237 9.0 14.0 0.00 0.01 0.01 87 1017.3
20200713171004 64 237 9.0 12.0 0.00 0.01 0.01 87 1017.3
20200713170904 64 234 10.0 13.0 0.00 0.01 0.01 87 1017.4
20200713170804 65 230 10.0 13.0 0.00 0.01 0.01 87 1017.3
20200713170705 65 229 9.0 13.0 0.00 0.01 0.01 86 1017.3
20200713170605 65 230 8.0 13.0 0.00 0.01 0.01 86 1017.3
20200713170509 65 233 8.0 13.0 0.00 0.01 0.01 86 1017.3
20200713170403 65 233 10.0 14.0 0.00 0.01 0.01 86 1017.3
20200713170307 65 234 10.0 14.0 0.00 0.01 0.01 86 1017.3
20200713170204 65 233 10.0 14.0 0.00 0.01 0.01 86 1017.3
20200713170105 65 231 9.0 13.0 0.00 0.01 0.01 86 1017.3
20200713170004 65 234 9.0 13.0 0.00 0.01 0.01 86 1017.3
20200713165906 65 238 8.0 12.0 0.00 0.01 0.01 86 1017.3
20200713165804 65 241 8.0 12.0 0.00 0.01 0.01 86 1017.3
20200713165705 65 238 8.0 13.0 0.00 0.01 0.01 86 1017.3
20200713165604 65 238 9.0 13.0 0.00 0.01 0.01 85 1017.4
20200713165505 65 236 9.0 13.0 0.00 0.01 0.01 85 1017.4
20200713165403 65 237 9.0 13.0 0.00 0.01 0.01 85 1017.4
20200713165304 65 236 9.0 12.0 0.00 0.01 0.01 85 1017.4
20200713165204 65 238 9.0 13.0 0.00 0.01 0.01 85 1017.3
20200713165106 65 238 9.0 13.0 0.00 0.01 0.01 85 1017.3
20200713165008 65 237 10.0 14.0 0.00 0.01 0.01 85 1017.3
20200713164904 66 235 10.0 14.0 0.00 0.01 0.01 85 1017.3
20200713164803 66 230 11.0 14.0 0.00 0.01 0.01 85 1017.4
20200713164705 66 225 11.0 16.0 0.00 0.01 0.01 85 1017.4
20200713164605 66 224 11.0 16.0 0.00 0.01 0.01 85 1017.4
20200713164507 66 227 11.0 13.0 0.00 0.01 0.01 85 1017.4
20200713164404 66 225 12.0 16.0 0.00 0.01 0.01 85 1017.4
20200713164304 66 224 13.0 21.0 0.00 0.01 0.01 85 1017.4
20200713164204 66 223 14.0 21.0 0.00 0.01 0.01 85 1017.5
20200713164104 66 223 14.0 21.0 0.00 0.01 0.01 85 1017.5
20200713164003 66 225 13.0 16.0 0.00 0.01 0.01 85 1017.5
20200713163905 66 225 12.0 16.0 0.00 0.01 0.01 85 1017.5
20200713163805 66 228 12.0 16.0 0.00 0.01 0.01 86 1017.5
20200713163705 65 228 13.0 19.0 0.00 0.01 0.01 85 1017.6
20200713163603 65 227 14.0 19.0 0.00 0.01 0.01 85 1017.6
20200713163505 65 225 14.0 19.0 0.00 0.01 0.01 85 1017.6
20200713163404 65 226 13.0 19.0 0.00 0.01 0.01 85 1017.6
20200713163304 65 224 14.0 21.0 0.00 0.01 0.01 85 1017.5
20200713163203 65 224 14.0 21.0 0.00 0.01 0.01 85 1017.6
20200713163106 65 223 15.0 21.0 0.00 0.01 0.01 85 1017.6
20200713163004 65 223 13.0 19.0 0.00 0.01 0.01 85 1017.6
20200713162904 65 223 14.0 21.0 0.00 0.01 0.01 85 1017.6
20200713162805 65 225 13.0 21.0 0.00 0.01 0.01 85 1017.6
20200713162706 65 223 13.0 21.0 0.00 0.01 0.01 85 1017.6
20200713162603 65 224 12.0 15.0 0.00 0.01 0.01 85 1017.6
20200713162506 65 225 13.0 20.0 0.00 0.01 0.01 85 1017.6
20200713162408 65 229 14.0 20.0 0.00 0.01 0.01 85 1017.6
20200713162304 65 231 13.0 20.0 0.00 0.01 0.01 85 1017.6
20200713162203 65 231 12.0 19.0 0.00 0.01 0.01 85 1017.6
20200713162105 65 227 10.0 15.0 0.00 0.01 0.01 85 1017.7
20200713162003 65 226 10.0 15.0 0.00 0.01 0.01 85 1017.7
20200713161905 65 228 11.0 19.0 0.00 0.01 0.01 85 1017.6
20200713161804 65 230 13.0 19.0 0.00 0.01 0.01 85 1017.7
20200713161705 65 226 14.0 20.0 0.00 0.01 0.01 84 1017.7
20200713161605 65 220 13.0 20.0 0.00 0.01 0.01 84 1017.7
20200713161506 65 215 13.0 18.0 0.00 0.01 0.01 83 1017.7
20200713161406 66 217 14.0 21.0 0.00 0.01 0.01 83 1017.7
20200713161304 66 217 13.0 21.0 0.00 0.01 0.01 83 1017.7
20200713161204 66 213 12.0 21.0 0.00 0.01 0.01 83 1017.7
20200713161104 66 210 13.0 21.0 0.00 0.01 0.01 82 1017.7
20200713161003 66 212 15.0 22.0 0.00 0.01 0.01 82 1017.7
20200713160907 66 215 14.0 22.0 0.00 0.01 0.01 81 1017.7
20200713160803 66 221 13.0 22.0 0.00 0.01 0.01 82 1017.7
20200713160704 66 224 12.0 18.0 0.00 0.01 0.01 81 1017.7
20200713160605 66 228 12.0 18.0 0.00 0.01 0.01 81 1017.7
20200713160504 66 230 12.0 16.0 0.00 0.01 0.01 81 1017.7
20200713160404 67 231 12.0 16.0 0.00 0.01 0.01 81 1017.7
20200713160305 67 235 13.0 19.0 0.00 0.01 0.01 81 1017.7
20200713160203 67 236 13.0 19.0 0.00 0.01 0.01 80 1017.7
20200713160104 67 237 13.0 19.0 0.00 0.01 0.01 80 1017.7
20200713160007 67 234 14.0 20.0 0.00 0.01 0.01 80 1017.7
20200713155904 67 232 13.0 20.0 0.00 0.01 0.01 80 1017.7
20200713155803 67 232 14.0 20.0 0.00 0.01 0.01 79 1017.7
20200713155704 67 230 14.0 19.0 0.00 0.01 0.01 79 1017.7
20200713155604 67 231 14.0 18.0 0.00 0.01 0.01 79 1017.7
20200713155508 67 231 14.0 19.0 0.00 0.01 0.01 79 1017.7
20200713155403 67 230 15.0 21.0 0.00 0.01 0.01 79 1017.8
20200713155305 67 235 17.0 23.0 0.00 0.01 0.01 78 1017.8
20200713155205 67 236 16.0 23.0 0.00 0.01 0.01 78 1017.8
20200713155104 67 235 15.0 23.0 0.00 0.01 0.01 78 1017.8
20200713155003 68 231 14.0 22.0 0.00 0.01 0.01 79 1017.8
20200713154904 68 231 12.0 22.0 0.00 0.01 0.01 79 1017.8
20200713154804 67 238 12.0 21.0 0.00 0.01 0.01 80 1017.8
20200713154704 67 243 12.0 19.0 0.00 0.01 0.01 79 1017.8
20200713154610 67 241 13.0 19.0 0.00 0.01 0.01 79 1017.8
20200713154513 67 233 13.0 16.0 0.00 0.01 0.01 79 1017.8
20200713154403 67 231 12.0 18.0 0.00 0.01 0.01 79 1017.9
20200713154306 67 232 12.0 18.0 0.00 0.01 0.01 79 1017.8
20200713154204 67 235 13.0 18.0 0.00 0.01 0.01 80 1017.9
20200713154105 67 234 12.0 18.0 0.00 0.01 0.01 79 1017.9
20200713154004 67 234 13.0 18.0 0.00 0.01 0.01 79 1017.8
20200713153905 67 234 13.0 18.0 0.00 0.01 0.01 79 1017.9
20200713153803 67 237 13.0 18.0 0.00 0.01 0.01 79 1017.9
20200713153704 67 240 13.0 19.0 0.00 0.01 0.01 79 1017.9
20200713153603 67 239 13.0 19.0 0.00 0.01 0.01 80 1017.9
20200713153505 67 235 12.0 19.0 0.00 0.01 0.01 80 1018.0
20200713153404 67 233 11.0 15.0 0.00 0.01 0.01 80 1018.0
20200713153304 67 234 12.0 15.0 0.00 0.01 0.01 80 1017.9
20200713153204 67 236 12.0 15.0 0.00 0.01 0.01 80 1017.9
20200713153105 66 237 11.0 15.0 0.00 0.01 0.01 80 1018.0
20200713153004 66 236 13.0 19.0 0.00 0.01 0.01 80 1018.0
20200713152904 66 233 14.0 19.0 0.00 0.01 0.01 80 1018.0
20200713152803 66 233 13.0 19.0 0.00 0.01 0.01 80 1018.1
20200713152705 66 234 12.0 19.0 0.00 0.01 0.01 80 1018.1
20200713152603 66 238 11.0 15.0 0.00 0.01 0.01 80 1018.1
20200713152506 66 243 11.0 15.0 0.00 0.01 0.01 80 1018.1
20200713152404 66 243 10.0 15.0 0.00 0.01 0.01 80 1018.1
20200713152306 66 244 11.0 15.0 0.00 0.01 0.01 80 1018.1
20200713152203 66 241 12.0 21.0 0.00 0.01 0.01 80 1018.1
20200713152104 67 240 12.0 21.0 0.00 0.01 0.01 80 1018.1
20200713152006 67 236 12.0 21.0 0.00 0.01 0.01 80 1018.1
20200713151908 67 237 10.0 14.0 0.00 0.01 0.01 80 1018.1
20200713151805 67 237 11.0 15.0 0.00 0.01 0.01 80 1018.1
20200713151705 67 240 12.0 16.0 0.00 0.01 0.01 80 1018.1
20200713151607 67 240 12.0 19.0 0.00 0.01 0.01 80 1018.1
20200713151508 67 237 12.0 19.0 0.00 0.01 0.01 80 1018.1
20200713151405 67 235 11.0 16.0 0.00 0.01 0.01 79 1018.1
20200713151304 67 233 11.0 20.0 0.00 0.01 0.01 80 1018.1
20200713151204 67 238 11.0 20.0 0.00 0.01 0.01 79 1018.1
20200713151104 67 236 12.0 20.0 0.00 0.01 0.01 79 1018.1
20200713151005 67 240 12.0 18.0 0.00 0.01 0.01 79 1018.1
20200713150907 67 242 12.0 18.0 0.00 0.01 0.01 79 1018.2
20200713150804 67 241 12.0 18.0 0.00 0.01 0.01 79 1018.2
20200713150704 67 235 12.0 16.0 0.00 0.01 0.01 79 1018.1
20200713150606 67 234 13.0 16.0 0.00 0.01 0.01 79 1018.2
20200713150506 67 232 12.0 16.0 0.00 0.01 0.01 79 1018.2
20200713150404 67 235 11.0 15.0 0.00 0.01 0.01 79 1018.2
20200713150304 67 230 11.0 15.0 0.00 0.01 0.01 80 1018.3
20200713150203 67 232 11.0 15.0 0.00 0.01 0.01 79 1018.3
20200713150105 67 235 10.0 15.0 0.00 0.01 0.01 79 1018.3
20200713150011 67 233 11.0 16.0 0.00 0.01 0.01 80 1018.3
20200713145904 67 231 12.0 16.0 0.00 0.01 0.01 79 1018.3
20200713145804 67 233 12.0 16.0 0.00 0.01 0.01 79 1018.3
20200713145704 67 230 13.0 19.0 0.00 0.01 0.01 80 1018.4
20200713145603 67 227 14.0 20.0 0.00 0.01 0.01 80 1018.4
20200713145507 66 227 13.0 20.0 0.00 0.01 0.01 80 1018.3
20200713145404 66 234 12.0 20.0 0.00 0.01 0.01 80 1018.3
20200713145304 66 234 13.0 19.0 0.00 0.01 0.01 80 1018.3
20200713145206 66 230 14.0 20.0 0.00 0.01 0.01 79 1018.4
20200713145109 66 222 16.0 21.0 0.00 0.01 0.01 80 1018.4
20200713145003 66 221 16.0 21.0 0.00 0.01 0.01 79 1018.4
20200713144905 66 221 15.0 21.0 0.00 0.01 0.01 80 1018.4
20200713144804 66 223 13.0 20.0 0.00 0.01 0.01 80 1018.4
20200713144705 66 221 14.0 20.0 0.00 0.01 0.01 79 1018.4
20200713144604 66 223 15.0 23.0 0.00 0.01 0.01 79 1018.4
20200713144521 66 225 15.0 23.0 0.00 0.01 0.01 79 1018.5
20200713144403 67 229 13.0 23.0 0.00 0.01 0.01 79 1018.5
20200713144304 67 234 12.0 19.0 0.00 0.01 0.01 80 1018.5
20200713144204 67 235 11.0 16.0 0.00 0.01 0.01 80 1018.4
20200713144105 67 237 11.0 16.0 0.00 0.01 0.01 79 1018.5
20200713144004 67 234 12.0 16.0 0.00 0.01 0.01 79 1018.5
20200713143905 67 234 11.0 16.0 0.00 0.01 0.01 79 1018.5
20200713143805 67 231 12.0 18.0 0.00 0.01 0.01 79 1018.5
20200713143704 67 227 12.0 18.0 0.00 0.01 0.01 79 1018.5
20200713143603 67 225 13.0 23.0 0.00 0.01 0.01 79 1018.5
20200713143504 67 230 14.0 23.0 0.00 0.01 0.01 78 1018.5
20200713143403 67 234 15.0 21.0 0.00 0.01 0.01 78 1018.6
20200713143305 67 235 14.0 21.0 0.00 0.01 0.01 78 1018.6
20200713143204 67 232 13.0 21.0 0.00 0.01 0.01 79 1018.5
20200713143105 67 230 12.0 20.0 0.00 0.01 0.01 79 1018.6
20200713143008 67 230 14.0 20.0 0.00 0.01 0.01 79 1018.6
20200713142907 67 232 15.0 23.0 0.00 0.01 0.01 79 1018.6
20200713142804 66 233 16.0 23.0 0.00 0.01 0.01 79 1018.6
20200713142704 66 234 16.0 23.0 0.00 0.01 0.01 79 1018.6
20200713142604 66 231 16.0 22.0 0.00 0.01 0.01 79 1018.6
20200713142505 66 231 16.0 22.0 0.00 0.01 0.01 79 1018.7
20200713142404 66 230 14.0 22.0 0.00 0.01 0.01 79 1018.6
20200713142304 66 234 14.0 22.0 0.00 0.01 0.01 79 1018.7
20200713142203 66 235 12.0 20.0 0.00 0.01 0.01 80 1018.7
20200713142104 66 237 12.0 20.0 0.00 0.01 0.01 80 1018.7
20200713142005 66 232 12.0 18.0 0.00 0.01 0.01 80 1018.7
20200713141904 66 232 12.0 18.0 0.00 0.01 0.01 80 1018.7
20200713141803 66 232 13.0 19.0 0.00 0.01 0.01 80 1018.7
20200713141705 66 234 13.0 19.0 0.00 0.01 0.01 79 1018.7
20200713141606 66 232 13.0 19.0 0.00 0.01 0.01 80 1018.7
20200713141505 66 235 13.0 23.0 0.00 0.01 0.01 79 1018.8
20200713141404 66 231 15.0 24.0 0.00 0.01 0.01 79 1018.8
20200713141308 66 231 15.0 24.0 0.00 0.01 0.01 78 1018.8
20200713141204 66 232 14.0 23.0 0.00 0.01 0.01 78 1018.9
20200713141110 66 234 15.0 20.0 0.00 0.01 0.01 78 1018.9
20200713141006 66 234 14.0 20.0 0.00 0.01 0.01 78 1018.9
20200713140904 66 234 13.0 19.0 0.00 0.01 0.01 78 1018.8
20200713140805 66 235 13.0 18.0 0.00 0.01 0.01 78 1018.9
20200713140705 66 233 14.0 19.0 0.00 0.01 0.01 78 1018.9
20200713140610 67 234 14.0 19.0 0.00 0.01 0.01 77 1018.9
20200713140504 67 234 12.0 19.0 0.00 0.01 0.01 78 1018.9
20200713140404 67 236 11.0 18.0 0.00 0.01 0.01 78 1018.9
20200713140305 67 234 12.0 19.0 0.00 0.01 0.01 78 1018.9
20200713140203 67 234 13.0 19.0 0.00 0.01 0.01 77 1018.9
20200713140106 67 240 15.0 21.0 0.00 0.01 0.01 77 1018.9
20200713140004 67 243 16.0 23.0 0.00 0.01 0.01 77 1018.9
20200713135905 67 241 15.0 23.0 0.00 0.01 0.01 77 1018.9
20200713135805 67 239 13.0 20.0 0.00 0.01 0.01 76 1019.0
20200713135705 67 241 12.0 16.0 0.00 0.01 0.01 76 1018.9
20200713135603 67 246 12.0 20.0 0.00 0.01 0.01 76 1018.9
20200713135504 67 248 13.0 20.0 0.00 0.01 0.01 75 1019.0
20200713135413 67 249 13.0 20.0 0.00 0.01 0.01 75 1019.1
20200713135304 67 246 14.0 20.0 0.00 0.01 0.01 75 1019.0
20200713135203 68 240 15.0 21.0 0.00 0.01 0.01 75 1019.0
20200713135106 68 238 16.0 21.0 0.00 0.01 0.01 75 1018.9
20200713135004 68 237 16.0 21.0 0.00 0.01 0.01 75 1019.0
20200713134904 68 238 14.0 21.0 0.00 0.01 0.01 75 1018.9
20200713134804 68 241 15.0 22.0 0.00 0.01 0.01 75 1019.0
20200713134706 68 240 16.0 25.0 0.00 0.01 0.01 74 1019.0
20200713134607 68 238 18.0 25.0 0.00 0.01 0.01 75 1019.0
20200713134507 68 232 16.0 25.0 0.00 0.01 0.01 75 1019.0
20200713134404 68 233 12.0 25.0 0.00 0.01 0.01 76 1018.9
20200713134304 68 236 9.0 13.0 0.00 0.01 0.01 77 1018.9
20200713134207 68 237 9.0 14.0 0.00 0.01 0.01 76 1018.9
20200713134105 68 234 10.0 14.0 0.00 0.01 0.01 77 1018.9
20200713134005 67 238 11.0 18.0 0.00 0.01 0.01 77 1018.9
20200713133905 67 241 12.0 18.0 0.00 0.01 0.01 76 1018.9
20200713133804 67 241 15.0 21.0 0.00 0.01 0.01 76 1018.9
20200713133704 67 238 14.0 21.0 0.00 0.01 0.01 76 1018.9
20200713133604 67 235 14.0 21.0 0.00 0.01 0.01 77 1019.0
20200713133507 67 235 12.0 20.0 0.00 0.01 0.01 77 1018.9
20200713133404 67 238 11.0 16.0 0.00 0.01 0.01 77 1018.9
20200713133305 67 242 12.0 22.0 0.00 0.01 0.01 77 1018.9
20200713133205 67 245 13.0 22.0 0.00 0.01 0.01 77 1019.0
20200713133104 67 248 13.0 22.0 0.00 0.01 0.01 77 1019.0
20200713133004 67 247 12.0 19.0 0.00 0.01 0.01 77 1019.0
20200713132904 67 244 13.0 19.0 0.00 0.01 0.01 77 1019.0
20200713132803 67 243 12.0 19.0 0.00 0.01 0.01 77 1019.1
20200713132704 67 243 11.0 19.0 0.00 0.01 0.01 77 1019.0
20200713132604 67 244 10.0 19.0 0.00 0.01 0.01 77 1019.0
20200713132505 67 242 10.0 16.0 0.00 0.01 0.01 77 1019.0
20200713132404 67 240 11.0 16.0 0.00 0.01 0.01 77 1019.1
20200713132304 67 236 12.0 18.0 0.00 0.01 0.01 77 1019.0
20200713132204 67 236 12.0 18.0 0.00 0.01 0.01 77 1019.1
20200713132104 67 242 12.0 18.0 0.00 0.01 0.01 77 1019.0
20200713132003 67 242 13.0 18.0 0.00 0.01 0.01 77 1019.0
20200713131904 67 241 13.0 18.0 0.00 0.01 0.01 77 1019.0
20200713131804 67 237 13.0 18.0 0.00 0.01 0.01 77 1019.1
20200713131705 67 237 12.0 19.0 0.00 0.01 0.01 77 1019.0
20200713131603 67 237 12.0 19.0 0.00 0.01 0.01 76 1019.1
20200713131504 67 236 13.0 20.0 0.00 0.01 0.01 76 1019.0
20200713131404 67 235 13.0 20.0 0.00 0.01 0.01 76 1019.1
20200713131304 67 237 12.0 20.0 0.00 0.01 0.01 76 1019.1
20200713131204 68 239 10.0 15.0 0.00 0.01 0.01 76 1019.1
20200713131104 68 236 8.0 14.0 0.00 0.01 0.01 77 1019.1
20200713131004 68 230 8.0 13.0 0.00 0.01 0.01 78 1019.2
20200713130904 67 226 9.0 13.0 0.00 0.01 0.01 78 1019.1
20200713130804 67 227 9.0 13.0 0.00 0.01 0.01 78 1019.2
20200713130707 67 238 8.0 14.0 0.00 0.01 0.01 78 1019.2
20200713130604 67 239 9.0 14.0 0.00 0.01 0.01 78 1019.2
20200713130507 67 236 9.0 14.0 0.00 0.01 0.01 79 1019.2
20200713130404 67 233 9.0 13.0 0.00 0.01 0.01 79 1019.2
20200713130304 67 241 9.0 12.0 0.00 0.01 0.01 79 1019.2
20200713130204 67 241 8.0 12.0 0.00 0.01 0.01 79 1019.2
20200713130105 67 238 8.0 13.0 0.00 0.01 0.01 79 1019.3
20200713130008 67 233 9.0 13.0 0.00 0.01 0.01 79 1019.3
20200713125904 67 232 9.0 13.0 0.00 0.01 0.01 79 1019.3
20200713125803 66 234 9.0 12.0 0.00 0.01 0.01 79 1019.4
20200713125704 66 238 9.0 12.0 0.00 0.01 0.01 79 1019.4
20200713125604 66 235 10.0 13.0 0.00 0.01 0.01 79 1019.4
20200713125504 66 238 10.0 13.0 0.00 0.01 0.01 79 1019.4
20200713125404 66 237 11.0 15.0 0.00 0.01 0.01 79 1019.4
20200713125304 66 240 10.0 15.0 0.00 0.01 0.01 79 1019.4
20200713125204 66 235 10.0 15.0 0.00 0.01 0.01 80 1019.4
20200713125104 66 228 10.0 13.0 0.00 0.01 0.01 80 1019.4
20200713125007 66 227 10.0 13.0 0.00 0.01 0.01 80 1019.4
20200713124904 66 226 9.0 12.0 0.00 0.01 0.01 80 1019.4
20200713124804 66 232 9.0 12.0 0.00 0.01 0.01 79 1019.5
20200713124712 66 234 10.0 18.0 0.00 0.01 0.01 79 1019.5
20200713124621 66 235 11.0 18.0 0.00 0.01 0.01 79 1019.6
20200713124523 66 231 11.0 18.0 0.00 0.01 0.01 79 1019.5
20200713124406 66 222 10.0 15.0 0.00 0.01 0.01 79 1019.6
20200713124305 66 221 9.0 13.0 0.00 0.01 0.01 80 1019.5
20200713124206 66 228 8.0 15.0 0.00 0.01 0.01 80 1019.6
20200713124120 66 234 10.0 16.0 0.00 0.01 0.01 80 1019.5
20200713124024 66 232 11.0 16.0 0.00 0.01 0.01 80 1019.6
20200713123905 66 231 10.0 16.0 0.00 0.01 0.01 80 1019.6
20200713123836 66 230 10.0 15.0 0.00 0.01 0.01 80 1019.6
20200713123704 65 233 10.0 13.0 0.00 0.01 0.01 80 1019.6
20200713123640 65 231 10.0 13.0 0.00 0.01 0.01 80 1019.6
20200713123607 65 230 11.0 15.0 0.00 0.01 0.01 80 1019.6
20200713123403 65 228 10.0 15.0 0.00 0.01 0.01 81 1019.6
20200713123304 65 226 9.0 15.0 0.00 0.01 0.01 81 1019.6
20200713123204 65 222 8.0 11.0 0.00 0.01 0.01 81 1019.6
20200713123107 65 217 10.0 14.0 0.00 0.01 0.01 80 1019.6
20200713123008 65 213 12.0 18.0 0.00 0.01 0.01 80 1019.6
20200713122904 65 214 11.0 18.0 0.00 0.01 0.01 80 1019.6
20200713122806 65 216 9.0 18.0 0.00 0.01 0.01 81 1019.6
20200713122704 65 212 9.0 13.0 0.00 0.01 0.01 81 1019.6
20200713122604 65 206 11.0 16.0 0.00 0.01 0.01 80 1019.6
20200713122504 65 206 12.0 18.0 0.00 0.01 0.01 80 1019.6
20200713122403 65 204 13.0 18.0 0.00 0.01 0.01 80 1019.6
20200713122304 65 206 11.0 16.0 0.00 0.01 0.01 80 1019.6
20200713122204 66 206 12.0 16.0 0.00 0.01 0.01 80 1019.7
20200713122105 66 206 12.0 16.0 0.00 0.01 0.01 79 1019.7
20200713122003 66 205 12.0 16.0 0.00 0.01 0.01 79 1019.6
20200713121904 66 203 12.0 16.0 0.00 0.01 0.01 79 1019.7
20200713121804 66 208 11.0 15.0 0.00 0.01 0.01 79 1019.7
20200713121704 66 206 11.0 15.0 0.00 0.01 0.01 79 1019.7
20200713121603 66 208 9.0 15.0 0.00 0.01 0.01 80 1019.7
20200713121511 66 207 9.0 15.0 0.00 0.01 0.01 80 1019.7
20200713121404 66 210 9.0 13.0 0.00 0.01 0.01 80 1019.7
20200713121304 66 217 9.0 13.0 0.00 0.01 0.01 80 1019.8
20200713121204 66 215 10.0 14.0 0.00 0.01 0.01 80 1019.7
20200713121115 66 213 11.0 16.0 0.00 0.01 0.01 79 1019.8
20200713121003 66 206 12.0 16.0 0.00 0.01 0.01 80 1019.7
20200713120904 66 199 14.0 21.0 0.00 0.01 0.01 80 1019.8
20200713120804 66 196 13.0 21.0 0.00 0.01 0.01 79 1019.8
20200713120711 66 201 14.0 21.0 0.00 0.01 0.01 79 1019.7
20200713120603 66 206 14.0 20.0 0.00 0.01 0.01 79 1019.8
20200713120505 66 207 15.0 20.0 0.00 0.01 0.01 79 1019.8
20200713120403 66 207 14.0 20.0 0.00 0.01 0.01 79 1019.8
20200713120305 66 207 13.0 20.0 0.00 0.01 0.01 80 1019.8
20200713120203 66 210 13.0 18.0 0.00 0.01 0.01 79 1019.8
20200713120111 66 209 14.0 18.0 0.00 0.01 0.01 79 1019.8
20200713120004 66 215 14.0 19.0 0.00 0.01 0.01 79 1019.8
20200713115905 66 216 13.0 19.0 0.00 0.01 0.01 80 1019.9
20200713115804 66 220 13.0 19.0 0.00 0.01 0.01 81 1019.9
20200713115704 66 217 11.0 18.0 0.00 0.01 0.01 82 1019.9
20200713115603 66 221 9.0 13.0 0.00 0.01 0.01 82 1019.9
20200713115505 65 217 10.0 14.0 0.00 0.01 0.01 82 1019.9
20200713115403 65 217 11.0 16.0 0.00 0.01 0.01 82 1019.9
20200713115304 65 220 12.0 16.0 0.00 0.01 0.01 82 1019.9
20200713115205 65 223 12.0 16.0 0.00 0.01 0.01 82 1019.9
20200713115107 65 227 12.0 15.0 0.00 0.01 0.01 82 1019.9
20200713115004 65 227 11.0 14.0 0.00 0.01 0.01 82 1019.9
20200713114904 65 227 11.0 14.0 0.00 0.01 0.01 83 1019.9
20200713114804 65 227 11.0 14.0 0.00 0.01 0.01 83 1019.9
20200713114704 64 227 11.0 15.0 0.00 0.01 0.01 83 1020.0
20200713114603 64 225 11.0 15.0 0.00 0.01 0.01 83 1020.0
20200713114507 64 220 12.0 15.0 0.00 0.01 0.01 83 1020.0
20200713114404 64 219 12.0 15.0 0.00 0.01 0.01 83 1020.0
20200713114304 64 222 12.0 16.0 0.00 0.01 0.01 83 1020.1
20200713114204 64 225 12.0 16.0 0.00 0.01 0.01 82 1020.1
20200713114104 64 224 13.0 18.0 0.00 0.01 0.01 82 1020.1
20200713114006 64 224 13.0 18.0 0.00 0.01 0.01 82 1020.1
20200713113905 64 225 13.0 18.0 0.00 0.01 0.01 82 1020.1
20200713113803 65 229 14.0 20.0 0.00 0.01 0.01 81 1020.1
20200713113704 65 225 14.0 20.0 0.00 0.01 0.01 81 1020.1
20200713113604 65 220 14.0 20.0 0.00 0.01 0.01 80 1020.2
20200713113504 65 220 14.0 20.0 0.00 0.01 0.01 79 1020.2
20200713113403 65 224 13.0 19.0 0.00 0.01 0.01 79 1020.2
20200713113304 65 229 12.0 19.0 0.00 0.01 0.01 79 1020.2
20200713113205 65 229 9.0 15.0 0.00 0.01 0.01 79 1020.2
20200713113105 65 232 9.0 14.0 0.00 0.01 0.01 79 1020.2
20200713113006 65 231 10.0 14.0 0.00 0.01 0.01 79 1020.2
20200713112904 65 227 11.0 14.0 0.00 0.01 0.01 79 1020.2
20200713112808 65 220 11.0 14.0 0.00 0.01 0.01 79 1020.3
20200713112705 65 217 12.0 19.0 0.00 0.01 0.01 79 1020.3
20200713112603 65 220 12.0 19.0 0.00 0.01 0.01 79 1020.3
20200713112504 65 222 12.0 19.0 0.00 0.01 0.01 79 1020.3
20200713112404 65 222 11.0 18.0 0.00 0.01 0.01 78 1020.3
20200713112303 65 220 12.0 18.0 0.00 0.01 0.01 79 1020.3
20200713112204 65 221 10.0 14.0 0.00 0.01 0.01 79 1020.4
20200713112104 65 224 11.0 16.0 0.00 0.01 0.01 79 1020.4
20200713112011 65 226 11.0 16.0 0.00 0.01 0.01 78 1020.4
20200713111904 65 233 11.0 16.0 0.00 0.01 0.01 78 1020.3
20200713111804 65 230 11.0 15.0 0.00 0.01 0.01 78 1020.4
20200713111704 65 226 11.0 16.0 0.00 0.01 0.01 77 1020.4
20200713111603 65 219 13.0 18.0 0.00 0.01 0.01 77 1020.4
20200713111510 65 217 13.0 18.0 0.00 0.01 0.01 78 1020.4
20200713111404 65 218 13.0 18.0 0.00 0.01 0.01 78 1020.4
20200713111304 65 214 12.0 18.0 0.00 0.01 0.01 78 1020.4
20200713111203 65 208 12.0 19.0 0.00 0.01 0.01 79 1020.5
20200713111106 65 204 12.0 19.0 0.00 0.01 0.01 79 1020.5
20200713111004 65 205 11.0 19.0 0.00 0.01 0.01 79 1020.5
20200713110908 65 208 10.0 14.0 0.00 0.01 0.01 79 1020.5
20200713110804 65 212 10.0 14.0 0.00 0.01 0.01 79 1020.5
20200713110704 65 213 12.0 21.0 0.00 0.01 0.01 79 1020.6
20200713110605 65 212 13.0 21.0 0.00 0.01 0.01 78 1020.5
20200713110504 65 212 12.0 21.0 0.00 0.01 0.01 79 1020.6
20200713110404 65 211 11.0 14.0 0.00 0.01 0.01 79 1020.6
20200713110304 65 214 11.0 16.0 0.00 0.01 0.01 79 1020.6
20200713110204 65 213 12.0 16.0 0.00 0.01 0.01 79 1020.6
20200713110104 65 217 13.0 18.0 0.00 0.01 0.01 79 1020.6
20200713110004 65 218 13.0 18.0 0.00 0.01 0.01 79 1020.6
20200713105803 65 212 14.0 18.0 0.00 0.01 0.01 79 1020.6
20200713105705 65 211 13.0 16.0 0.00 0.01 0.01 79 1020.6
20200713105604 65 211 12.0 16.0 0.00 0.01 0.01 80 1020.6
20200713105506 65 215 12.0 16.0 0.00 0.01 0.01 80 1020.7
20200713105404 65 218 11.0 15.0 0.00 0.01 0.01 80 1020.7
20200713105304 65 217 11.0 14.0 0.00 0.01 0.01 80 1020.6
20200713105204 64 214 10.0 14.0 0.00 0.01 0.01 80 1020.7
20200713105109 64 221 10.0 15.0 0.00 0.01 0.01 80 1020.7
20200713105010 64 217 11.0 15.0 0.00 0.01 0.01 81 1020.7
20200713104904 64 213 11.0 15.0 0.00 0.01 0.01 81 1020.7
20200713104804 64 210 12.0 18.0 0.00 0.01 0.01 81 1020.7
20200713104704 64 214 11.0 18.0 0.00 0.01 0.01 80 1020.7
20200713104603 64 214 10.0 18.0 0.00 0.01 0.01 81 1020.7
20200713104504 64 218 9.0 12.0 0.00 0.01 0.01 81 1020.7
20200713104404 64 226 9.0 15.0 0.00 0.01 0.01 81 1020.8
20200713104306 64 226 10.0 16.0 0.00 0.01 0.01 80 1020.8
20200713104204 64 226 11.0 16.0 0.00 0.01 0.01 80 1020.8
20200713104105 64 225 12.0 16.0 0.00 0.01 0.01 80 1020.8
20200713104003 64 226 12.0 16.0 0.00 0.01 0.01 80 1020.8
20200713103904 64 221 12.0 16.0 0.00 0.01 0.01 80 1020.8
20200713103804 64 216 13.0 18.0 0.00 0.01 0.01 80 1020.8
20200713103704 64 217 12.0 18.0 0.00 0.01 0.01 80 1020.8
20200713103603 64 218 12.0 16.0 0.00 0.01 0.01 80 1020.8
20200713103504 64 222 12.0 16.0 0.00 0.01 0.01 80 1020.8
20200713103404 64 222 11.0 16.0 0.00 0.01 0.01 80 1020.8
20200713103304 64 224 11.0 16.0 0.00 0.01 0.01 81 1020.7
20200713103203 64 225 9.0 12.0 0.00 0.01 0.01 80 1020.8
20200713103105 64 227 9.0 12.0 0.00 0.01 0.01 81 1020.8
20200713103004 64 226 9.0 13.0 0.00 0.01 0.01 81 1020.7
20200713102905 64 222 11.0 19.0 0.00 0.01 0.01 80 1020.8
20200713102803 64 219 12.0 19.0 0.00 0.01 0.01 80 1020.9
20200713102704 64 214 13.0 19.0 0.00 0.01 0.01 80 1020.9
20200713102604 64 214 12.0 18.0 0.00 0.01 0.01 80 1020.9
20200713102504 64 214 13.0 18.0 0.00 0.01 0.01 80 1020.9
20200713102403 64 220 12.0 18.0 0.00 0.01 0.01 79 1020.9
20200713102306 64 222 12.0 18.0 0.00 0.01 0.01 79 1020.9
20200713102205 64 217 13.0 20.0 0.00 0.01 0.01 79 1020.9
20200713102104 64 216 13.0 20.0 0.00 0.01 0.01 79 1020.9
20200713102005 64 220 13.0 20.0 0.00 0.01 0.01 80 1020.9
20200713101904 64 224 12.0 20.0 0.00 0.01 0.01 80 1020.9
20200713101803 64 223 11.0 16.0 0.00 0.01 0.01 80 1020.9
20200713101704 64 216 12.0 16.0 0.00 0.01 0.01 80 1020.9
20200713101603 64 219 11.0 15.0 0.00 0.01 0.01 79 1021.0
20200713101505 64 218 12.0 18.0 0.00 0.01 0.01 80 1021.0
20200713101403 64 219 10.0 18.0 0.00 0.01 0.01 80 1021.0
20200713101304 64 223 10.0 18.0 0.00 0.01 0.01 80 1021.1
20200713101204 64 224 9.0 14.0 0.00 0.01 0.01 80 1021.0
20200713101104 64 224 10.0 14.0 0.00 0.01 0.01 80 1021.0
20200713101003 64 223 11.0 18.0 0.00 0.01 0.01 80 1021.1
20200713100905 63 220 12.0 18.0 0.00 0.01 0.01 80 1021.1
20200713100803 63 220 11.0 18.0 0.00 0.01 0.01 80 1021.1
20200713100704 63 219 12.0 19.0 0.00 0.01 0.01 80 1021.1
20200713100606 63 222 13.0 19.0 0.00 0.01 0.01 80 1021.0
20200713100504 63 222 14.0 19.0 0.00 0.01 0.01 80 1021.1
20200713100407 63 221 12.0 18.0 0.00 0.01 0.01 80 1021.1
20200713100305 63 217 12.0 16.0 0.00 0.01 0.01 81 1021.1
20200713100203 63 215 11.0 15.0 0.00 0.01 0.01 80 1021.1
20200713100105 63 217 11.0 15.0 0.00 0.01 0.01 80 1021.1
20200713100006 63 221 10.0 14.0 0.00 0.01 0.01 81 1021.1
20200713095904 63 216 10.0 14.0 0.01 0.01 0.01 81 1021.1
20200713095803 63 208 11.0 14.0 0.01 0.01 0.01 81 1021.1
20200713095705 63 209 11.0 15.0 0.01 0.01 0.01 81 1021.1
20200713095603 63 215 11.0 15.0 0.01 0.01 0.01 81 1021.1
20200713095504 63 220 10.0 14.0 0.01 0.01 0.01 81 1021.2
20200713095404 63 223 9.0 12.0 0.01 0.01 0.01 81 1021.2
20200713095305 63 227 9.0 13.0 0.01 0.01 0.01 81 1021.2
20200713095204 63 229 11.0 16.0 0.01 0.01 0.01 80 1021.2
20200713095105 63 229 12.0 18.0 0.01 0.01 0.01 80 1021.2
20200713095004 63 226 13.0 18.0 0.01 0.01 0.01 80 1021.2
20200713094905 63 217 12.0 18.0 0.01 0.01 0.01 80 1021.2
20200713094803 63 215 13.0 20.0 0.01 0.01 0.01 80 1021.2
20200713094704 63 210 12.0 20.0 0.01 0.01 0.01 80 1021.2
20200713094604 63 211 13.0 20.0 0.01 0.01 0.01 80 1021.3
20200713094504 63 211 11.0 18.0 0.01 0.01 0.01 80 1021.3
20200713094404 63 211 11.0 18.0 0.01 0.01 0.01 80 1021.3
20200713094305 63 214 10.0 14.0 0.01 0.01 0.01 81 1021.3
20200713094203 63 216 10.0 14.0 0.01 0.01 0.01 81 1021.3
20200713094104 63 224 10.0 13.0 0.01 0.01 0.01 81 1021.3
20200713094003 62 223 10.0 13.0 0.01 0.01 0.01 81 1021.4
20200713093905 62 224 10.0 14.0 0.01 0.01 0.01 81 1021.4
20200713093803 62 220 10.0 14.0 0.01 0.01 0.01 81 1021.4
20200713093705 62 217 11.0 14.0 0.01 0.01 0.01 81 1021.4
20200713093604 62 215 11.0 14.0 0.01 0.01 0.01 81 1021.4
20200713093504 62 213 11.0 14.0 0.01 0.01 0.01 81 1021.4
20200713093404 62 210 10.0 14.0 0.01 0.01 0.01 80 1021.5
20200713093304 62 211 10.0 13.0 0.01 0.01 0.01 80 1021.4
20200713093204 62 209 10.0 12.0 0.01 0.01 0.01 80 1021.4
20200713093105 62 216 10.0 13.0 0.01 0.01 0.01 80 1021.4
20200713093011 62 218 10.0 13.0 0.01 0.01 0.01 80 1021.4
20200713092908 62 217 10.0 13.0 0.01 0.01 0.01 80 1021.4
20200713092803 62 216 10.0 12.0 0.01 0.01 0.01 80 1021.4
20200713092704 62 216 9.0 12.0 0.01 0.01 0.01 80 1021.4
20200713092604 62 215 9.0 13.0 0.01 0.01 0.01 80 1021.4
20200713092507 62 213 9.0 13.0 0.01 0.01 0.01 80 1021.5
20200713092404 62 218 9.0 13.0 0.01 0.01 0.01 80 1021.5
20200713092304 62 222 10.0 13.0 0.01 0.01 0.01 79 1021.5
20200713092204 62 221 10.0 13.0 0.01 0.01 0.01 80 1021.5
20200713092104 62 217 11.0 13.0 0.01 0.01 0.01 79 1021.5
20200713092004 62 213 11.0 15.0 0.01 0.01 0.01 79 1021.5
20200713091904 62 212 11.0 15.0 0.01 0.01 0.01 80 1021.5
20200713091804 62 211 11.0 15.0 0.01 0.01 0.01 82 1021.6
20200713091704 62 213 11.0 13.0 0.01 0.01 0.01 83 1021.6
20200713091608 62 216 11.0 13.0 0.01 0.01 0.01 84 1021.6
20200713091505 61 218 11.0 14.0 0.01 0.01 0.01 84 1021.6
20200713091404 61 224 9.0 14.0 0.01 0.01 0.01 85 1021.6
20200713091306 61 229 8.0 14.0 0.01 0.01 0.01 87 1021.7
20200713091207 61 231 6.0 10.0 0.01 0.01 0.01 87 1021.7
20200713091107 60 233 7.0 10.0 0.01 0.01 0.01 87 1021.7
20200713091004 60 228 8.0 11.0 0.01 0.01 0.01 87 1021.7
20200713090904 60 227 7.0 11.0 0.01 0.01 0.01 87 1021.7
20200713090804 60 229 6.0 11.0 0.01 0.01 0.01 87 1021.7
20200713090704 60 229 6.0 8.0 0.01 0.01 0.01 87 1021.7
20200713090604 60 222 6.0 9.0 0.01 0.01 0.01 87 1021.7
20200713090508 60 217 6.0 9.0 0.01 0.01 0.01 87 1021.7
20200713090404 60 221 6.0 9.0 0.01 0.01 0.01 87 1021.7
20200713090304 60 225 6.0 9.0 0.01 0.01 0.01 87 1021.7
20200713090204 60 220 5.0 7.0 0.01 0.01 0.01 87 1021.8
20200713090106 60 219 6.0 9.0 0.01 0.01 0.01 87 1021.7
20200713090004 60 220 7.0 10.0 0.00 0.00 0.00 87 1021.7
20200713085904 60 221 7.0 11.0 0.00 0.00 0.00 87 1021.7
20200713085804 60 218 7.0 11.0 0.00 0.00 0.00 87 1021.7
20200713085704 60 215 6.0 11.0 0.00 0.00 0.00 87 1021.7
20200713085603 59 217 5.0 8.0 0.00 0.00 0.00 86 1021.7
20200713085504 59 219 7.0 10.0 0.00 0.00 0.00 86 1021.7
20200713085408 59 216 8.0 12.0 0.00 0.00 0.00 86 1021.7
20200713085304 59 215 8.0 12.0 0.00 0.00 0.00 86 1021.8
20200713085203 59 216 6.0 11.0 0.00 0.00 0.00 86 1021.8
20200713085105 59 228 4.0 9.0 0.00 0.00 0.00 86 1021.8
20200713085003 59 232 3.0 7.0 0.00 0.00 0.00 85 1021.8
20200713084905 59 230 5.0 7.0 0.00 0.00 0.00 85 1021.8
20200713084803 59 226 5.0 7.0 0.00 0.00 0.00 85 1021.8
20200713084704 59 225 6.0 9.0 0.00 0.00 0.00 85 1021.8
20200713084605 59 224 6.0 11.0 0.00 0.00 0.00 85 1021.8
20200713084505 59 224 6.0 11.0 0.00 0.00 0.00 85 1021.8
20200713084417 59 224 5.0 11.0 0.00 0.00 0.00 84 1021.9
20200713084305 59 220 5.0 8.0 0.00 0.00 0.00 84 1021.8
20200713084204 59 220 5.0 8.0 0.00 0.00 0.00 84 1021.8
20200713084107 59 221 5.0 8.0 0.00 0.00 0.00 83 1021.8
20200713084004 59 229 5.0 8.0 0.00 0.00 0.00 83 1021.8
20200713083905 59 232 6.0 9.0 0.00 0.00 0.00 83 1021.9
20200713083805 59 232 7.0 10.0 0.00 0.00 0.00 82 1021.9
20200713083706 59 231 8.0 11.0 0.00 0.00 0.00 82 1021.9
20200713083604 59 230 9.0 12.0 0.00 0.00 0.00 81 1021.9
20200713083505 59 229 10.0 12.0 0.00 0.00 0.00 80 1021.9
20200713083405 59 228 9.0 12.0 0.00 0.00 0.00 80 1021.9
20200713083304 60 224 9.0 12.0 0.00 0.00 0.00 80 1021.9
20200713083204 60 222 9.0 12.0 0.00 0.00 0.00 79 1021.8
20200713083107 60 222 9.0 12.0 0.00 0.00 0.00 79 1021.8
20200713083005 60 228 9.0 12.0 0.00 0.00 0.00 78 1021.8
20200713082904 60 229 10.0 12.0 0.00 0.00 0.00 78 1021.8
20200713082804 60 231 10.0 13.0 0.00 0.00 0.00 77 1021.9
20200713082704 60 230 10.0 14.0 0.00 0.00 0.00 77 1021.9
20200713082604 60 233 9.0 14.0 0.00 0.00 0.00 77 1021.9
20200713082504 61 233 8.0 14.0 0.00 0.00 0.00 77 1021.8
20200713082404 61 225 8.0 13.0 0.00 0.00 0.00 77 1021.9
20200713082303 61 220 9.0 13.0 0.00 0.00 0.00 76 1021.8
20200713082204 61 218 9.0 13.0 0.00 0.00 0.00 76 1021.8
20200713082104 61 218 9.0 13.0 0.00 0.00 0.00 76 1021.8
20200713082004 61 222 8.0 13.0 0.00 0.00 0.00 76 1021.9
20200713081904 61 222 10.0 14.0 0.00 0.00 0.00 76 1021.9
20200713081804 61 227 10.0 15.0 0.00 0.00 0.00 75 1021.8
20200713081705 61 226 11.0 15.0 0.00 0.00 0.00 76 1021.9
20200713081604 61 227 10.0 13.0 0.00 0.00 0.00 76 1021.9
20200713081512 61 223 10.0 12.0 0.00 0.00 0.00 76 1021.8
20200713081404 61 217 10.0 12.0 0.00 0.00 0.00 76 1021.8
20200713081304 61 212 9.0 12.0 0.00 0.00 0.00 76 1021.8
20200713081205 61 217 9.0 11.0 0.00 0.00 0.00 76 1021.8
20200713081105 61 222 9.0 13.0 0.00 0.00 0.00 76 1021.9
20200713081005 61 223 9.0 13.0 0.00 0.00 0.00 76 1021.9
20200713080905 61 214 9.0 13.0 0.00 0.00 0.00 76 1021.8
20200713080804 61 213 9.0 13.0 0.00 0.00 0.00 77 1021.9
20200713080704 61 211 8.0 13.0 0.00 0.00 0.00 77 1021.9
20200713080604 61 219 7.0 11.0 0.00 0.00 0.00 77 1021.9
20200713080504 61 216 8.0 12.0 0.00 0.00 0.00 77 1021.9
20200713080404 60 217 9.0 12.0 0.00 0.00 0.00 77 1021.9
20200713080306 60 213 8.0 12.0 0.00 0.00 0.00 77 1021.9
20200713080204 60 218 8.0 10.0 0.00 0.00 0.00 77 1021.9
20200713080104 60 219 7.0 9.0 0.00 0.00 0.00 78 1021.9
20200713080022 60 220 6.0 8.0 0.00 0.00 0.00 78 1021.9
20200713075906 60 224 6.0 10.0 0.00 0.00 0.00 78 1021.8
20200713075804 60 227 7.0 10.0 0.00 0.00 0.00 78 1021.8
20200713075709 60 226 9.0 11.0 0.00 0.00 0.00 78 1021.9
20200713075607 60 221 9.0 11.0 0.00 0.00 0.00 78 1021.9
20200713075506 60 223 9.0 12.0 0.00 0.00 0.00 78 1021.9
20200713075404 60 226 9.0 12.0 0.00 0.00 0.00 78 1021.9
20200713075306 60 230 9.0 12.0 0.00 0.00 0.00 78 1022.0
20200713075204 60 227 9.0 11.0 0.00 0.00 0.00 78 1021.9
20200713075104 60 228 8.0 11.0 0.00 0.00 0.00 79 1021.9
20200713075005 60 228 7.0 11.0 0.00 0.00 0.00 79 1021.9
20200713074905 60 228 7.0 13.0 0.00 0.00 0.00 78 1021.9
20200713074804 60 230 9.0 13.0 0.00 0.00 0.00 78 1021.9
20200713074704 60 227 9.0 13.0 0.00 0.00 0.00 78 1021.9
20200713074603 60 227 9.0 13.0 0.00 0.00 0.00 78 1021.9
20200713074508 60 223 9.0 13.0 0.00 0.00 0.00 78 1021.9
20200713074404 60 225 9.0 13.0 0.00 0.00 0.00 78 1021.9
20200713074304 60 223 10.0 13.0 0.00 0.00 0.00 78 1021.9
20200713074204 60 226 9.0 13.0 0.00 0.00 0.00 78 1022.0
20200713074104 60 227 9.0 13.0 0.00 0.00 0.00 78 1022.0
20200713074004 60 230 8.0 13.0 0.00 0.00 0.00 79 1022.0
20200713073905 60 231 7.0 10.0 0.00 0.00 0.00 79 1022.0
20200713073804 60 233 6.0 10.0 0.00 0.00 0.00 79 1022.0
20200713073704 60 224 7.0 10.0 0.00 0.00 0.00 79 1022.0
20200713073603 60 222 7.0 10.0 0.00 0.00 0.00 78 1022.0
20200713073507 60 223 8.0 10.0 0.00 0.00 0.00 78 1022.0
20200713073405 60 226 8.0 11.0 0.00 0.00 0.00 78 1022.0
20200713073304 60 221 8.0 12.0 0.00 0.00 0.00 77 1021.9
20200713073203 60 221 9.0 12.0 0.00 0.00 0.00 77 1022.0
20200713073108 60 222 9.0 12.0 0.00 0.00 0.00 77 1021.9
20200713073003 60 223 9.0 12.0 0.00 0.00 0.00 77 1022.0
20200713072904 60 226 9.0 12.0 0.00 0.00 0.00 77 1022.0
20200713072804 60 225 9.0 12.0 0.00 0.00 0.00 77 1022.0
20200713072705 60 223 8.0 12.0 0.00 0.00 0.00 77 1022.0
20200713072603 60 218 8.0 12.0 0.00 0.00 0.00 78 1022.0
20200713072504 60 216 7.0 10.0 0.00 0.00 0.00 78 1022.0
20200713072404 60 220 7.0 10.0 0.00 0.00 0.00 78 1022.0
20200713072305 60 226 7.0 10.0 0.00 0.00 0.00 78 1022.0
20200713072203 60 228 7.0 9.0 0.00 0.00 0.00 78 1022.0
20200713072104 60 228 7.0 9.0 0.00 0.00 0.00 78 1022.0
20200713072004 60 228 7.0 9.0 0.00 0.00 0.00 78 1022.0
20200713071907 60 231 7.0 9.0 0.00 0.00 0.00 78 1022.0
20200713071803 60 224 7.0 10.0 0.00 0.00 0.00 78 1022.0
20200713071705 60 219 7.0 11.0 0.00 0.00 0.00 78 1022.0
20200713071604 59 213 8.0 11.0 0.00 0.00 0.00 78 1022.0
20200713071510 59 216 7.0 11.0 0.00 0.00 0.00 78 1022.0
20200713071404 59 222 7.0 9.0 0.00 0.00 0.00 78 1022.0
20200713071304 59 226 8.0 11.0 0.00 0.00 0.00 77 1022.1
20200713071205 59 224 8.0 11.0 0.00 0.00 0.00 77 1022.0
20200713071105 59 219 9.0 11.0 0.00 0.00 0.00 77 1022.1
20200713071003 59 215 9.0 11.0 0.00 0.00 0.00 77 1022.1
20200713070904 59 215 9.0 11.0 0.00 0.00 0.00 77 1022.1
20200713070803 59 218 9.0 11.0 0.00 0.00 0.00 77 1022.1
20200713070704 59 215 8.0 12.0 0.00 0.00 0.00 77 1022.1
20200713070605 59 215 8.0 12.0 0.00 0.00 0.00 77 1022.1
20200713070504 59 212 8.0 12.0 0.00 0.00 0.00 77 1022.1
20200713070403 59 216 7.0 11.0 0.00 0.00 0.00 77 1022.1
20200713070304 59 211 7.0 11.0 0.00 0.00 0.00 77 1022.1
20200713070203 59 216 8.0 11.0 0.00 0.00 0.00 77 1022.1
20200713070105 59 214 8.0 11.0 0.00 0.00 0.00 77 1022.0
20200713070007 59 217 8.0 11.0 0.00 0.00 0.00 77 1022.0
20200713065906 59 214 7.0 10.0 0.00 0.00 0.00 77 1022.0
20200713065804 59 210 8.0 11.0 0.00 0.00 0.00 78 1022.1
20200713065704 59 207 7.0 11.0 0.00 0.00 0.00 77 1022.1
20200713065603 59 208 7.0 10.0 0.00 0.00 0.00 78 1022.1
20200713065504 59 212 7.0 10.0 0.00 0.00 0.00 78 1022.1
20200713065404 59 214 6.0 10.0 0.00 0.00 0.00 78 1022.1
20200713065304 59 220 7.0 12.0 0.00 0.00 0.00 78 1022.1
20200713065203 59 216 8.0 13.0 0.00 0.00 0.00 77 1022.1
20200713065105 59 216 9.0 13.0 0.00 0.00 0.00 77 1022.1
20200713065005 59 217 9.0 12.0 0.00 0.00 0.00 77 1022.1
20200713064904 59 220 8.0 12.0 0.00 0.00 0.00 78 1022.1
20200713064805 59 221 7.0 11.0 0.00 0.00 0.00 78 1022.1
20200713064705 59 222 8.0 11.0 0.00 0.00 0.00 78 1022.1
20200713064604 59 222 8.0 12.0 0.00 0.00 0.00 78 1022.0
20200713064512 59 226 8.0 12.0 0.00 0.00 0.00 78 1022.0
20200713064404 59 229 8.0 11.0 0.00 0.00 0.00 78 1022.1
20200713064305 59 226 9.0 11.0 0.00 0.00 0.00 78 1022.1
20200713064203 59 225 9.0 11.0 0.00 0.00 0.00 78 1022.1
20200713064105 59 218 9.0 14.0 0.00 0.00 0.00 78 1022.1
20200713064003 58 218 9.0 14.0 0.00 0.00 0.00 77 1022.1
20200713063904 58 216 9.0 14.0 0.00 0.00 0.00 78 1022.0
20200713063805 58 219 9.0 12.0 0.00 0.00 0.00 78 1022.0
20200713063705 58 221 8.0 12.0 0.00 0.00 0.00 78 1022.0
20200713063604 58 223 7.0 12.0 0.00 0.00 0.00 78 1022.0
20200713063510 58 226 7.0 10.0 0.00 0.00 0.00 78 1022.0
20200713063403 58 224 8.0 12.0 0.00 0.00 0.00 78 1022.0
20200713063308 58 224 9.0 12.0 0.00 0.00 0.00 78 1022.1
20200713063207 58 221 9.0 12.0 0.00 0.00 0.00 78 1022.0
20200713063105 58 217 9.0 12.0 0.00 0.00 0.00 78 1022.0
20200713063008 58 217 8.0 12.0 0.00 0.00 0.00 78 1022.0
20200713062905 58 216 8.0 10.0 0.00 0.00 0.00 78 1022.1
20200713062804 58 215 7.0 10.0 0.00 0.00 0.00 79 1022.0
20200713062705 58 216 7.0 9.0 0.00 0.00 0.00 79 1022.0
20200713062604 58 217 7.0 9.0 0.00 0.00 0.00 78 1022.0
20200713062504 58 214 7.0 9.0 0.00 0.00 0.00 78 1022.0
20200713062406 58 211 7.0 9.0 0.00 0.00 0.00 78 1022.1
20200713062306 58 212 7.0 10.0 0.00 0.00 0.00 79 1022.1
20200713062204 58 216 7.0 11.0 0.00 0.00 0.00 79 1022.1
20200713062104 58 218 9.0 13.0 0.00 0.00 0.00 78 1022.2
20200713062022 58 222 9.0 13.0 0.00 0.00 0.00 78 1022.2
20200713061905 58 221 9.0 13.0 0.00 0.00 0.00 79 1022.2
20200713061804 58 225 8.0 11.0 0.00 0.00 0.00 79 1022.2
20200713061705 58 224 8.0 11.0 0.00 0.00 0.00 79 1022.2
20200713061604 58 222 7.0 10.0 0.00 0.00 0.00 79 1022.2
20200713061508 58 217 7.0 11.0 0.00 0.00 0.00 79 1022.2
20200713061404 58 218 7.0 11.0 0.00 0.00 0.00 79 1022.2
20200713061306 58 217 8.0 11.0 0.00 0.00 0.00 79 1022.2
20200713061203 58 219 8.0 11.0 0.00 0.00 0.00 79 1022.3
20200713061106 58 217 9.0 12.0 0.00 0.00 0.00 79 1022.3
20200713061004 58 216 8.0 12.0 0.00 0.00 0.00 79 1022.3
20200713060905 58 216 8.0 12.0 0.00 0.00 0.00 79 1022.3
20200713060804 58 219 8.0 12.0 0.00 0.00 0.00 78 1022.3
20200713060706 58 221 9.0 12.0 0.00 0.00 0.00 79 1022.3
20200713060604 58 226 9.0 12.0 0.00 0.00 0.00 79 1022.4
20200713060504 58 226 8.0 10.0 0.00 0.00 0.00 79 1022.4
20200713060403 58 222 8.0 10.0 0.00 0.00 0.00 79 1022.3
20200713060305 58 219 7.0 10.0 0.00 0.00 0.00 79 1022.3
20200713060204 57 214 7.0 10.0 0.00 0.00 0.00 80 1022.3
20200713060105 57 212 7.0 10.0 0.00 0.00 0.00 80 1022.4
20200713060004 57 210 7.0 10.0 0.00 0.00 0.00 80 1022.3
20200713055905 57 210 7.0 10.0 0.00 0.00 0.00 80 1022.3
20200713055803 57 206 7.0 10.0 0.00 0.00 0.00 80 1022.3
20200713055709 57 203 7.0 9.0 0.00 0.00 0.00 80 1022.3
20200713055604 57 202 6.0 9.0 0.00 0.00 0.00 80 1022.3
20200713055506 57 201 7.0 9.0 0.00 0.00 0.00 80 1022.2
20200713055405 57 200 6.0 9.0 0.00 0.00 0.00 80 1022.3
20200713055304 57 200 7.0 9.0 0.00 0.00 0.00 80 1022.3
20200713055205 57 202 7.0 9.0 0.00 0.00 0.00 80 1022.3
20200713055104 57 202 7.0 9.0 0.00 0.00 0.00 80 1022.3
20200713055004 57 201 6.0 9.0 0.00 0.00 0.00 80 1022.3
20200713054905 57 205 6.0 9.0 0.00 0.00 0.00 80 1022.4
20200713054804 57 205 6.0 9.0 0.00 0.00 0.00 80 1022.4
20200713054704 57 207 6.0 8.0 0.00 0.00 0.00 80 1022.4
20200713054603 57 203 6.0 8.0 0.00 0.00 0.00 80 1022.4
20200713054504 57 203 6.0 8.0 0.00 0.00 0.00 80 1022.4
20200713054405 57 201 6.0 8.0 0.00 0.00 0.00 81 1022.4
20200713054308 57 202 5.0 8.0 0.00 0.00 0.00 81 1022.4
20200713054204 57 201 6.0 8.0 0.00 0.00 0.00 81 1022.4
20200713054104 57 204 6.0 8.0 0.00 0.00 0.00 81 1022.3
20200713054009 57 207 6.0 8.0 0.00 0.00 0.00 81 1022.4
20200713053904 57 211 6.0 8.0 0.00 0.00 0.00 81 1022.5
20200713053804 57 214 5.0 8.0 0.00 0.00 0.00 81 1022.4
20200713053705 57 212 6.0 8.0 0.00 0.00 0.00 81 1022.4
20200713053605 57 213 6.0 9.0 0.00 0.00 0.00 81 1022.4
20200713053504 57 213 6.0 9.0 0.00 0.00 0.00 81 1022.4
20200713053403 57 212 6.0 9.0 0.00 0.00 0.00 81 1022.4
20200713053304 57 206 6.0 7.0 0.00 0.00 0.00 81 1022.4
20200713053204 57 204 6.0 8.0 0.00 0.00 0.00 81 1022.4
20200713053104 57 205 6.0 9.0 0.00 0.00 0.00 81 1022.4
20200713053005 57 206 7.0 9.0 0.00 0.00 0.00 81 1022.4
20200713052905 57 206 7.0 9.0 0.00 0.00 0.00 81 1022.5
20200713052804 57 207 6.0 9.0 0.00 0.00 0.00 82 1022.4
20200713052705 57 210 6.0 9.0 0.00 0.00 0.00 81 1022.4
20200713052606 57 214 6.0 9.0 0.00 0.00 0.00 81 1022.5
20200713052505 57 213 6.0 9.0 0.00 0.00 0.00 82 1022.4
20200713052404 57 213 5.0 9.0 0.00 0.00 0.00 81 1022.5
20200713052304 57 214 6.0 10.0 0.00 0.00 0.00 82 1022.5
20200713052203 57 215 6.0 10.0 0.00 0.00 0.00 81 1022.5
20200713052105 57 217 7.0 10.0 0.00 0.00 0.00 81 1022.5
20200713052004 57 222 7.0 11.0 0.00 0.00 0.00 82 1022.5
20200713051904 57 224 7.0 11.0 0.00 0.00 0.00 82 1022.5
20200713051805 57 225 7.0 11.0 0.00 0.00 0.00 82 1022.5
20200713051706 57 221 7.0 9.0 0.00 0.00 0.00 82 1022.5
20200713051606 56 221 6.0 9.0 0.00 0.00 0.00 83 1022.6
20200713051505 56 220 6.0 9.0 0.00 0.00 0.00 83 1022.6
20200713051409 56 220 6.0 9.0 0.00 0.00 0.00 83 1022.6
20200713051304 56 219 5.0 7.0 0.00 0.00 0.00 84 1022.6
20200713051204 56 221 5.0 7.0 0.00 0.00 0.00 84 1022.6
20200713051104 56 219 5.0 7.0 0.00 0.00 0.00 84 1022.6
20200713051004 56 221 5.0 7.0 0.00 0.00 0.00 84 1022.6
20200713050906 56 222 5.0 7.0 0.00 0.00 0.00 85 1022.6
20200713050805 56 224 5.0 7.0 0.00 0.00 0.00 85 1022.7
20200713050707 56 221 5.0 7.0 0.00 0.00 0.00 85 1022.6
20200713050603 56 219 4.0 6.0 0.00 0.00 0.00 86 1022.6
20200713050505 56 219 4.0 6.0 0.00 0.00 0.00 85 1022.6
20200713050405 56 222 4.0 6.0 0.00 0.00 0.00 86 1022.6
20200713050305 56 219 4.0 6.0 0.00 0.00 0.00 86 1022.5
20200713050203 56 215 4.0 7.0 0.00 0.00 0.00 86 1022.6
20200713050106 56 214 5.0 8.0 0.00 0.00 0.00 86 1022.6
20200713050017 56 215 5.0 8.0 0.00 0.00 0.00 86 1022.5
20200713045904 55 212 5.0 8.0 0.00 0.00 0.00 86 1022.6
20200713045804 55 213 4.0 6.0 0.00 0.00 0.00 86 1022.6
20200713045705 55 219 3.0 6.0 0.00 0.00 0.00 86 1022.5
20200713045603 55 222 4.0 7.0 0.00 0.00 0.00 86 1022.5
20200713045507 55 219 5.0 9.0 0.00 0.00 0.00 86 1022.6
20200713045404 55 215 6.0 9.0 0.00 0.00 0.00 86 1022.6
20200713045304 55 215 6.0 9.0 0.00 0.00 0.00 87 1022.6
20200713045206 55 215 5.0 6.0 0.00 0.00 0.00 87 1022.6
20200713045104 55 218 4.0 6.0 0.00 0.00 0.00 87 1022.7
20200713045006 55 219 3.0 6.0 0.00 0.00 0.00 88 1022.7
20200713044905 55 218 3.0 6.0 0.00 0.00 0.00 88 1022.7
20200713044805 55 217 3.0 5.0 0.00 0.00 0.00 88 1022.8
20200713044704 55 218 3.0 6.0 0.00 0.00 0.00 88 1022.8
20200713044604 55 220 3.0 6.0 0.00 0.00 0.00 88 1022.8
20200713044509 55 222 3.0 6.0 0.00 0.00 0.00 88 1022.8
20200713044404 55 222 3.0 6.0 0.00 0.00 0.00 88 1022.8
20200713044305 55 221 3.0 6.0 0.00 0.00 0.00 88 1022.8
20200713044203 55 219 3.0 6.0 0.00 0.00 0.00 88 1022.8
20200713044104 55 219 2.0 5.0 0.00 0.00 0.00 88 1022.7
20200713044005 55 218 2.0 5.0 0.00 0.00 0.00 88 1022.7
20200713043904 55 217 1.0 4.0 0.00 0.00 0.00 88 1022.8
20200713043804 55 216 1.0 3.0 0.00 0.00 0.00 88 1022.8
20200713043704 55 217 1.0 3.0 0.00 0.00 0.00 88 1022.8
20200713043603 55 218 1.0 3.0 0.00 0.00 0.00 88 1022.8
20200713043504 55 218 2.0 5.0 0.00 0.00 0.00 88 1022.8
20200713043404 55 217 3.0 6.0 0.00 0.00 0.00 88 1022.8
20200713043305 55 217 4.0 6.0 0.00 0.00 0.00 88 1022.8
20200713043203 55 218 4.0 6.0 0.00 0.00 0.00 88 1022.7
20200713043104 55 218 4.0 5.0 0.00 0.00 0.00 89 1022.7
20200713043004 55 218 3.0 5.0 0.00 0.00 0.00 89 1022.7
20200713042905 55 218 2.0 4.0 0.00 0.00 0.00 89 1022.7
20200713042804 55 218 1.0 4.0 0.00 0.00 0.00 89 1022.7
20200713042707 55 218 1.0 4.0 0.00 0.00 0.00 89 1022.7
20200713042603 55 218 2.0 4.0 0.00 0.00 0.00 89 1022.7
20200713042504 55 218 2.0 4.0 0.00 0.00 0.00 89 1022.7
20200713042404 55 217 2.0 4.0 0.00 0.00 0.00 89 1022.8
20200713042304 55 217 3.0 5.0 0.00 0.00 0.00 89 1022.8
20200713042204 55 217 3.0 6.0 0.00 0.00 0.00 89 1022.8
20200713042104 55 215 4.0 6.0 0.00 0.00 0.00 89 1022.7
20200713042004 55 213 3.0 6.0 0.00 0.00 0.00 89 1022.7
20200713041904 55 213 4.0 5.0 0.00 0.00 0.00 89 1022.7
20200713041803 54 212 3.0 5.0 0.00 0.00 0.00 89 1022.7
20200713041704 54 212 3.0 5.0 0.00 0.00 0.00 89 1022.6
20200713041604 54 212 3.0 5.0 0.00 0.00 0.00 89 1022.6
20200713041504 54 212 3.0 5.0 0.00 0.00 0.00 89 1022.6
20200713041403 54 212 4.0 5.0 0.00 0.00 0.00 89 1022.6
20200713041305 54 212 3.0 5.0 0.00 0.00 0.00 89 1022.6
20200713041204 54 212 3.0 5.0 0.00 0.00 0.00 89 1022.6
20200713041104 54 212 3.0 5.0 0.00 0.00 0.00 89 1022.6
20200713041003 54 211 3.0 5.0 0.00 0.00 0.00 89 1022.6
20200713040904 54 211 2.0 5.0 0.00 0.00 0.00 89 1022.6
20200713040804 54 211 2.0 5.0 0.00 0.00 0.00 89 1022.6
20200713040705 54 210 2.0 4.0 0.00 0.00 0.00 89 1022.7
20200713040604 54 210 2.0 4.0 0.00 0.00 0.00 89 1022.6
20200713040506 54 209 1.0 4.0 0.00 0.00 0.00 89 1022.6
20200713040405 54 209 1.0 3.0 0.00 0.00 0.00 89 1022.6
20200713040304 54 209 1.0 2.0 0.00 0.00 0.00 88 1022.6
20200713040203 54 209 1.0 2.0 0.00 0.00 0.00 88 1022.6
20200713040107 54 209 1.0 2.0 0.00 0.00 0.00 88 1022.6
20200713040016 55 209 1.0 2.0 0.00 0.00 0.00 89 1022.6
20200713035904 54 209 2.0 3.0 0.00 0.00 0.00 88 1022.6
20200713035805 54 208 2.0 3.0 0.00 0.00 0.00 88 1022.7
20200713035705 54 208 1.0 3.0 0.00 0.00 0.00 89 1022.7
20200713035605 54 207 2.0 4.0 0.00 0.00 0.00 89 1022.7
20200713035505 54 207 3.0 6.0 0.00 0.00 0.00 89 1022.7
20200713035403 54 207 4.0 7.0 0.00 0.00 0.00 89 1022.7
20200713035305 54 212 5.0 7.0 0.00 0.00 0.00 89 1022.7
20200713035203 54 215 5.0 7.0 0.00 0.00 0.00 89 1022.7
20200713035104 54 217 5.0 7.0 0.00 0.00 0.00 89 1022.7
20200713035003 54 215 4.0 6.0 0.00 0.00 0.00 89 1022.7
20200713034904 54 217 4.0 7.0 0.00 0.00 0.00 89 1022.7
20200713034804 54 219 4.0 7.0 0.00 0.00 0.00 89 1022.7
20200713034704 54 221 4.0 6.0 0.00 0.00 0.00 89 1022.7
20200713034603 54 223 4.0 5.0 0.00 0.00 0.00 89 1022.8
20200713034506 54 223 3.0 5.0 0.00 0.00 0.00 89 1022.8
20200713034404 54 220 3.0 6.0 0.00 0.00 0.00 90 1022.8
20200713034304 54 219 3.0 6.0 0.00 0.00 0.00 89 1022.8
20200713034203 54 217 2.0 5.0 0.00 0.00 0.00 89 1022.8
20200713034104 54 217 2.0 6.0 0.00 0.00 0.00 89 1022.8
20200713034004 54 217 2.0 6.0 0.00 0.00 0.00 89 1022.8
20200713033907 54 217 3.0 6.0 0.00 0.00 0.00 89 1022.8
20200713033803 54 217 3.0 6.0 0.00 0.00 0.00 89 1022.8
20200713033704 54 217 2.0 5.0 0.00 0.00 0.00 89 1022.9
20200713033604 54 217 2.0 4.0 0.00 0.00 0.00 89 1022.9
20200713033506 54 217 3.0 5.0 0.00 0.00 0.00 89 1022.9
20200713033403 54 217 3.0 5.0 0.00 0.00 0.00 90 1022.9
20200713033304 54 217 4.0 5.0 0.00 0.00 0.00 90 1022.9
20200713033203 54 217 5.0 6.0 0.00 0.00 0.00 90 1022.8
20200713033104 54 217 4.0 6.0 0.00 0.00 0.00 90 1022.9
20200713033008 54 217 4.0 6.0 0.00 0.00 0.00 90 1022.9
20200713032904 54 217 4.0 6.0 0.00 0.00 0.00 90 1022.9
20200713032804 54 216 4.0 6.0 0.00 0.00 0.00 90 1022.9
20200713032704 54 216 4.0 7.0 0.00 0.00 0.00 90 1022.9
20200713032605 54 215 5.0 7.0 0.00 0.00 0.00 90 1022.9
20200713032504 54 214 5.0 7.0 0.00 0.00 0.00 90 1022.9
20200713032404 54 213 4.0 6.0 0.00 0.00 0.00 90 1023.0
20200713032307 54 214 4.0 6.0 0.00 0.00 0.00 90 1023.0
20200713032203 54 214 4.0 6.0 0.00 0.00 0.00 90 1023.0
20200713032105 54 214 4.0 6.0 0.00 0.00 0.00 90 1023.0
20200713032003 54 215 3.0 5.0 0.00 0.00 0.00 90 1023.0
20200713031904 54 215 3.0 5.0 0.00 0.00 0.00 90 1023.0
20200713031803 54 215 3.0 5.0 0.00 0.00 0.00 90 1023.0
20200713031707 54 215 3.0 5.0 0.00 0.00 0.00 90 1023.0
20200713031604 54 215 4.0 5.0 0.00 0.00 0.00 90 1023.0
20200713031507 54 214 4.0 5.0 0.00 0.00 0.00 90 1023.0
20200713031406 54 214 4.0 5.0 0.00 0.00 0.00 90 1022.9
20200713031304 54 213 5.0 6.0 0.00 0.00 0.00 90 1023.0
20200713031206 54 213 5.0 6.0 0.00 0.00 0.00 90 1023.0
20200713031105 54 212 4.0 6.0 0.00 0.00 0.00 90 1023.0
20200713031004 54 212 4.0 5.0 0.00 0.00 0.00 90 1023.0
20200713030906 54 211 4.0 5.0 0.00 0.00 0.00 90 1023.0
20200713030804 54 211 4.0 5.0 0.00 0.00 0.00 90 1023.0
20200713030704 54 211 4.0 6.0 0.00 0.00 0.00 90 1023.0
20200713030605 54 211 5.0 6.0 0.00 0.00 0.00 90 1023.1
20200713030505 54 211 5.0 6.0 0.00 0.00 0.00 90 1023.1
20200713030403 54 211 5.0 6.0 0.00 0.00 0.00 90 1023.1
20200713030311 54 211 5.0 6.0 0.00 0.00 0.00 90 1023.1
20200713030204 54 207 5.0 6.0 0.00 0.00 0.00 90 1023.1
20200713030105 54 199 5.0 6.0 0.00 0.00 0.00 90 1023.1
20200713030008 54 195 5.0 7.0 0.00 0.00 0.00 90 1023.1
20200713025904 54 197 5.0 7.0 0.00 0.00 0.00 91 1023.1
20200713025805 54 202 5.0 7.0 0.00 0.00 0.00 91 1023.1
20200713025710 54 205 4.0 7.0 0.00 0.00 0.00 91 1023.2
20200713025604 54 209 3.0 6.0 0.00 0.00 0.00 91 1023.2
20200713025507 54 209 2.0 5.0 0.00 0.00 0.00 91 1023.2
20200713025403 54 209 2.0 5.0 0.00 0.00 0.00 91 1023.2
20200713025304 54 209 3.0 5.0 0.00 0.00 0.00 91 1023.2
20200713025205 54 209 3.0 5.0 0.00 0.00 0.00 91 1023.2
20200713025104 54 209 4.0 5.0 0.00 0.00 0.00 91 1023.2
20200713025005 54 209 4.0 5.0 0.00 0.00 0.00 91 1023.3
20200713024904 54 208 4.0 6.0 0.00 0.00 0.00 91 1023.3
20200713024804 54 211 4.0 6.0 0.00 0.00 0.00 91 1023.3
20200713024703 54 216 4.0 6.0 0.00 0.00 0.00 91 1023.3
20200713024604 54 219 4.0 6.0 0.00 0.00 0.00 91 1023.3
20200713024523 54 222 3.0 5.0 0.00 0.00 0.00 91 1023.3
20200713024403 54 222 2.0 4.0 0.00 0.00 0.00 91 1023.3
20200713024306 54 222 2.0 4.0 0.00 0.00 0.00 91 1023.3
20200713024204 54 222 1.0 3.0 0.00 0.00 0.00 91 1023.3
20200713024104 54 222 2.0 4.0 0.00 0.00 0.00 91 1023.3
20200713024004 54 222 2.0 4.0 0.00 0.00 0.00 91 1023.4
20200713023905 54 222 3.0 4.0 0.00 0.00 0.00 91 1023.4
20200713023806 54 219 3.0 5.0 0.00 0.00 0.00 91 1023.4
20200713023704 54 215 4.0 5.0 0.00 0.00 0.00 91 1023.4
20200713023603 54 211 4.0 5.0 0.00 0.00 0.00 91 1023.4
20200713023505 54 208 4.0 5.0 0.00 0.00 0.00 91 1023.4
20200713023403 54 206 4.0 5.0 0.00 0.00 0.00 91 1023.4
20200713023304 54 203 4.0 6.0 0.00 0.00 0.00 91 1023.4
20200713023203 54 203 4.0 6.0 0.00 0.00 0.00 91 1023.4
20200713023111 54 203 4.0 6.0 0.00 0.00 0.00 91 1023.4
20200713023006 54 203 4.0 6.0 0.00 0.00 0.00 91 1023.4
20200713022910 54 203 4.0 6.0 0.00 0.00 0.00 91 1023.5
20200713022803 54 206 4.0 6.0 0.00 0.00 0.00 91 1023.5
20200713022705 54 208 4.0 6.0 0.00 0.00 0.00 91 1023.5
20200713022603 54 208 4.0 6.0 0.00 0.00 0.00 91 1023.5
20200713022506 54 203 5.0 6.0 0.00 0.00 0.00 91 1023.5
20200713022404 54 203 4.0 6.0 0.00 0.00 0.00 91 1023.6
20200713022304 54 203 4.0 6.0 0.00 0.00 0.00 91 1023.5
20200713022204 54 203 4.0 6.0 0.00 0.00 0.00 91 1023.5
20200713022108 54 203 4.0 6.0 0.00 0.00 0.00 91 1023.6
20200713022005 54 205 4.0 7.0 0.00 0.00 0.00 91 1023.6
20200713021904 54 207 5.0 7.0 0.00 0.00 0.00 91 1023.6
20200713021804 54 209 5.0 7.0 0.00 0.00 0.00 91 1023.7
20200713021705 54 210 5.0 7.0 0.00 0.00 0.00 91 1023.7
20200713021603 54 210 4.0 6.0 0.00 0.00 0.00 91 1023.7
20200713021506 54 209 4.0 5.0 0.00 0.00 0.00 91 1023.7
20200713021404 54 209 4.0 5.0 0.00 0.00 0.00 91 1023.8
20200713021304 54 209 4.0 5.0 0.00 0.00 0.00 91 1023.8
20200713021203 54 209 3.0 5.0 0.00 0.00 0.00 91 1023.8
20200713021104 54 209 2.0 5.0 0.00 0.00 0.00 91 1023.8
20200713021004 54 208 2.0 4.0 0.00 0.00 0.00 91 1023.8
20200713020904 54 208 1.0 4.0 0.00 0.00 0.00 91 1023.8
20200713020803 54 208 2.0 4.0 0.00 0.00 0.00 91 1023.8
20200713020704 54 207 2.0 4.0 0.00 0.00 0.00 91 1023.8
20200713020603 54 207 2.0 5.0 0.00 0.00 0.00 91 1023.8
20200713020505 54 207 2.0 5.0 0.00 0.00 0.00 91 1023.9
20200713020404 54 207 3.0 5.0 0.00 0.00 0.00 91 1023.8
20200713020306 54 207 3.0 5.0 0.00 0.00 0.00 91 1023.9
20200713020204 54 208 3.0 5.0 0.00 0.00 0.00 91 1023.9
20200713020104 54 207 3.0 5.0 0.00 0.00 0.00 91 1023.8
20200713020004 54 207 3.0 5.0 0.00 0.00 0.00 91 1023.9
20200713015904 54 207 4.0 5.0 0.00 0.00 0.00 91 1023.8
20200713015803 54 207 4.0 5.0 0.00 0.00 0.00 91 1023.8
20200713015704 54 204 4.0 5.0 0.00 0.00 0.00 91 1023.9
20200713015604 54 199 4.0 5.0 0.00 0.00 0.00 92 1023.9
20200713015504 54 192 3.0 5.0 0.00 0.00 0.00 92 1023.9
20200713015404 53 192 4.0 5.0 0.00 0.00 0.00 92 1023.9
20200713015304 53 193 3.0 4.0 0.00 0.00 0.00 92 1023.9
20200713015203 53 193 3.0 5.0 0.00 0.00 0.00 92 1023.9
20200713015106 53 193 3.0 5.0 0.00 0.00 0.00 92 1024.0
20200713015004 53 192 4.0 6.0 0.00 0.00 0.00 92 1023.9
20200713014904 53 192 4.0 6.0 0.00 0.00 0.00 92 1024.0
20200713014804 53 192 3.0 6.0 0.00 0.00 0.00 92 1024.0
20200713014705 53 192 3.0 6.0 0.00 0.00 0.00 91 1024.0
20200713014603 53 192 3.0 6.0 0.00 0.00 0.00 91 1024.0
20200713014507 53 192 2.0 6.0 0.00 0.00 0.00 91 1024.0
20200713014404 53 192 1.0 4.0 0.00 0.00 0.00 91 1024.0
20200713014304 53 192 1.0 4.0 0.00 0.00 0.00 92 1024.0
20200713014203 53 192 2.0 4.0 0.00 0.00 0.00 91 1024.0
20200713014104 53 192 2.0 4.0 0.00 0.00 0.00 91 1024.0
20200713014007 53 191 2.0 4.0 0.00 0.00 0.00 91 1024.0
20200713013904 53 191 2.0 4.0 0.00 0.00 0.00 91 1024.0
20200713013803 53 191 1.0 4.0 0.00 0.00 0.00 91 1024.0
20200713013705 53 191 0.0 2.0 0.00 0.00 0.00 91 1024.0
20200713013603 53 191 0.0 1.0 0.00 0.00 0.00 91 1024.0
20200713013505 53 0 0.0 0.0 0.00 0.00 0.00 91 1024.0
20200713013403 53 191 0.0 1.0 0.00 0.00 0.00 91 1023.9
20200713013305 53 191 0.0 2.0 0.00 0.00 0.00 91 1024.0
20200713013203 53 191 0.0 2.0 0.00 0.00 0.00 91 1024.0
20200713013105 53 191 0.0 2.0 0.00 0.00 0.00 91 1024.0
20200713013005 54 191 0.0 1.0 0.00 0.00 0.00 91 1024.0
20200713012904 54 0 0.0 0.0 0.00 0.00 0.00 91 1024.0
20200713012803 54 0 0.0 0.0 0.00 0.00 0.00 91 1024.1
20200713012704 54 190 0.0 1.0 0.00 0.00 0.00 91 1024.0
20200713012604 54 191 0.0 1.0 0.00 0.00 0.00 91 1024.0
20200713012505 54 191 1.0 2.0 0.00 0.00 0.00 91 1024.0
20200713012403 54 190 1.0 2.0 0.00 0.00 0.00 91 1024.0
20200713012304 54 190 1.0 2.0 0.00 0.00 0.00 91 1024.0
20200713012204 54 191 1.0 2.0 0.00 0.00 0.00 91 1024.1
20200713012104 54 190 0.0 1.0 0.00 0.00 0.00 91 1024.1
20200713012005 54 191 0.0 1.0 0.00 0.00 0.00 91 1024.1
20200713011905 54 191 0.0 2.0 0.00 0.00 0.00 91 1024.1
20200713011803 54 191 1.0 4.0 0.00 0.00 0.00 91 1024.1
20200713011704 54 190 2.0 4.0 0.00 0.00 0.00 91 1024.1
20200713011606 54 190 2.0 4.0 0.00 0.00 0.00 91 1024.1
20200713011507 54 191 1.0 4.0 0.00 0.00 0.00 91 1024.1
20200713011405 54 191 1.0 3.0 0.00 0.00 0.00 91 1024.1
20200713011304 54 191 1.0 3.0 0.00 0.00 0.00 91 1024.1
20200713011203 54 190 1.0 3.0 0.00 0.00 0.00 92 1024.2
20200713011104 54 191 0.0 2.0 0.00 0.00 0.00 92 1024.2
20200713011003 54 190 1.0 2.0 0.00 0.00 0.00 92 1024.2
20200713010904 54 190 1.0 2.0 0.00 0.00 0.00 92 1024.2
20200713010804 54 190 2.0 5.0 0.00 0.00 0.00 92 1024.2
20200713010704 53 190 3.0 5.0 0.00 0.00 0.00 91 1024.3
20200713010603 53 190 4.0 5.0 0.00 0.00 0.00 91 1024.3
20200713010504 53 190 4.0 5.0 0.00 0.00 0.00 91 1024.3
20200713010403 53 190 3.0 4.0 0.00 0.00 0.00 91 1024.3
20200713010304 53 190 2.0 4.0 0.00 0.00 0.00 91 1024.3
20200713010203 53 190 1.0 4.0 0.00 0.00 0.00 91 1024.3
20200713010104 53 190 1.0 3.0 0.00 0.00 0.00 91 1024.3
20200713010006 53 191 1.0 3.0 0.00 0.00 0.00 90 1024.3
20200713005904 53 191 1.0 3.0 0.00 0.00 0.00 90 1024.4
20200713005803 53 191 1.0 2.0 0.00 0.00 0.00 90 1024.4
20200713005704 54 190 2.0 3.0 0.00 0.00 0.00 90 1024.4
20200713005604 54 190 2.0 3.0 0.00 0.00 0.00 90 1024.4
20200713005505 54 190 2.0 3.0 0.00 0.00 0.00 90 1024.4
20200713005404 54 189 1.0 2.0 0.00 0.00 0.00 90 1024.4
20200713005304 54 189 1.0 2.0 0.00 0.00 0.00 90 1024.4
20200713005204 54 189 1.0 2.0 0.00 0.00 0.00 90 1024.5
20200713005105 54 188 2.0 2.0 0.00 0.00 0.00 90 1024.5
20200713005033 54 188 2.0 4.0 0.00 0.00 0.00 89 1024.4
20200713004905 54 188 3.0 5.0 0.00 0.00 0.00 89 1024.5
20200713004803 54 184 4.0 5.0 0.00 0.00 0.00 89 1024.5
20200713004704 54 181 3.0 5.0 0.00 0.00 0.00 89 1024.5
20200713004603 54 175 2.0 5.0 0.00 0.00 0.00 90 1024.5
20200713004506 54 175 1.0 3.0 0.00 0.00 0.00 90 1024.5
20200713004405 54 0 0.0 0.0 0.00 0.00 0.00 90 1024.4
20200713004304 54 0 0.0 0.0 0.00 0.00 0.00 90 1024.5
20200713004204 54 0 0.0 0.0 0.00 0.00 0.00 90 1024.5
20200713004105 55 0 0.0 0.0 0.00 0.00 0.00 90 1024.5
20200713004003 55 0 0.0 0.0 0.00 0.00 0.00 90 1024.5
20200713003904 55 0 0.0 0.0 0.00 0.00 0.00 90 1024.5
20200713003804 55 0 0.0 0.0 0.00 0.00 0.00 90 1024.5
20200713003704 55 0 0.0 0.0 0.00 0.00 0.00 90 1024.5
20200713003607 55 0 0.0 0.0 0.00 0.00 0.00 90 1024.5
20200713003505 55 0 0.0 0.0 0.00 0.00 0.00 90 1024.5
20200713003404 55 0 0.0 0.0 0.00 0.00 0.00 90 1024.5
20200713003304 55 0 0.0 0.0 0.00 0.00 0.00 90 1024.5
20200713003203 55 0 0.0 0.0 0.00 0.00 0.00 89 1024.5
20200713003107 55 0 0.0 0.0 0.00 0.00 0.00 89 1024.5
20200713003004 55 0 0.0 0.0 0.00 0.00 0.00 89 1024.6
20200713002904 55 175 0.0 1.0 0.00 0.00 0.00 89 1024.5
20200713002804 55 175 0.0 1.0 0.00 0.00 0.00 89 1024.5
20200713002704 55 175 0.0 2.0 0.00 0.00 0.00 89 1024.5
20200713002604 55 175 0.0 2.0 0.00 0.00 0.00 89 1024.5
20200713002505 55 175 0.0 2.0 0.00 0.00 0.00 89 1024.5
20200713002404 55 175 0.0 1.0 0.00 0.00 0.00 89 1024.5
20200713002304 55 175 0.0 1.0 0.00 0.00 0.00 89 1024.6
20200713002205 55 175 0.0 1.0 0.00 0.00 0.00 89 1024.6
20200713002104 55 175 0.0 1.0 0.00 0.00 0.00 89 1024.6
20200713002004 55 174 0.0 2.0 0.00 0.00 0.00 89 1024.6
20200713001908 55 174 0.0 2.0 0.00 0.00 0.00 89 1024.5
20200713001805 55 175 0.0 2.0 0.00 0.00 0.00 89 1024.6
20200713001705 55 175 0.0 2.0 0.00 0.00 0.00 89 1024.6
20200713001606 55 175 0.0 2.0 0.00 0.00 0.00 89 1024.6
20200713001507 55 175 0.0 1.0 0.00 0.00 0.00 89 1024.6
20200713001403 55 0 0.0 0.0 0.00 0.00 0.00 89 1024.6
20200713001305 55 0 0.0 0.0 0.00 0.00 0.00 89 1024.5
20200713001203 55 0 0.0 0.0 0.00 0.00 0.00 89 1024.5
20200713001104 55 0 0.0 0.0 0.00 0.00 0.00 89 1024.5
20200713001004 55 0 0.0 0.0 0.00 0.00 0.00 89 1024.5
20200713000904 55 0 0.0 0.0 0.00 0.00 0.00 89 1024.6
20200713000804 55 0 0.0 0.0 0.00 0.00 0.00 89 1024.6
20200713000704 55 0 0.0 0.0 0.00 0.00 0.00 89 1024.6
20200713000606 55 0 0.0 0.0 0.00 0.00 0.00 89 1024.6
20200713000505 55 0 0.0 0.0 0.00 0.00 0.00 89 1024.6
20200713000404 55 0 0.0 0.0 0.00 0.00 0.00 89 1024.6
20200713000304 55 0 0.0 0.0 0.00 0.00 0.00 89 1024.6
20200713000204 55 0 0.0 0.0 0.00 0.00 0.00 89 1024.6
20200713000104 56 0 0.0 0.0 0.00 0.00 0.00 89 1024.6
20200713000004 56 0 0.0 0.0 0.00 0.00 0.00 89 1024.6
20200712235905 56 0 0.0 0.0 0.00 0.00 0.00 89 1024.6
20200712235804 56 0 0.0 0.0 0.00 0.00 0.00 89 1024.6
20200712235706 56 0 0.0 0.0 0.00 0.00 0.00 90 1024.6
20200712235603 56 0 0.0 0.0 0.00 0.00 0.00 90 1024.6
20200712235504 56 0 0.0 0.0 0.00 0.00 0.00 90 1024.6
20200712235406 56 0 0.0 0.0 0.00 0.00 0.00 90 1024.6
20200712235305 56 0 0.0 0.0 0.00 0.00 0.00 90 1024.7
20200712235203 56 175 0.0 1.0 0.00 0.00 0.00 90 1024.7
20200712235104 56 175 0.0 1.0 0.00 0.00 0.00 90 1024.6
20200712235005 56 174 0.0 2.0 0.00 0.00 0.00 90 1024.6
20200712234905 56 175 1.0 2.0 0.00 0.00 0.00 90 1024.7
20200712234804 56 174 1.0 4.0 0.00 0.00 0.00 90 1024.6
20200712234704 56 175 1.0 4.0 0.00 0.00 0.00 90 1024.7
20200712234606 56 174 1.0 4.0 0.00 0.00 0.00 90 1024.7
20200712234504 56 174 1.0 2.0 0.00 0.00 0.00 91 1024.6
20200712234403 55 175 0.0 2.0 0.00 0.00 0.00 91 1024.7
20200712234304 55 175 0.0 2.0 0.00 0.00 0.00 91 1024.6
20200712234203 55 175 0.0 2.0 0.00 0.00 0.00 91 1024.7
20200712234107 55 175 0.0 2.0 0.00 0.00 0.00 91 1024.7
20200712234004 55 175 0.0 2.0 0.00 0.00 0.00 91 1024.7
20200712233904 55 175 1.0 2.0 0.00 0.00 0.00 91 1024.7
20200712233804 55 175 1.0 3.0 0.00 0.00 0.00 91 1024.7
20200712233704 55 175 2.0 4.0 0.00 0.00 0.00 91 1024.7
20200712233604 55 175 2.0 4.0 0.00 0.00 0.00 92 1024.8
20200712233504 55 175 2.0 4.0 0.00 0.00 0.00 92 1024.7
20200712233403 55 184 2.0 4.0 0.00 0.00 0.00 92 1024.7
20200712233304 55 216 2.0 4.0 0.00 0.00 0.00 92 1024.7
20200712233204 55 265 2.0 4.0 0.00 0.00 0.00 92 1024.7
20200712233105 55 286 2.0 4.0 0.00 0.00 0.00 92 1024.8
20200712233005 55 292 2.0 4.0 0.00 0.00 0.00 92 1024.8
20200712232904 55 298 1.0 4.0 0.00 0.00 0.00 92 1024.8
20200712232803 55 307 1.0 2.0 0.00 0.00 0.00 92 1024.9
20200712232706 55 315 0.0 2.0 0.00 0.00 0.00 92 1024.8
20200712232604 54 0 0.0 0.0 0.00 0.00 0.00 92 1024.9
20200712232505 54 0 0.0 0.0 0.00 0.00 0.00 92 1024.9
20200712232403 54 0 0.0 0.0 0.00 0.00 0.00 92 1024.9
20200712232305 54 0 0.0 0.0 0.00 0.00 0.00 92 1024.9
20200712232204 54 316 0.0 1.0 0.00 0.00 0.00 91 1024.9
20200712232104 54 316 0.0 1.0 0.00 0.00 0.00 91 1024.9
20200712232003 54 316 0.0 2.0 0.00 0.00 0.00 91 1024.9
20200712231904 54 316 0.0 2.0 0.00 0.00 0.00 91 1025.0
20200712231804 54 316 0.0 2.0 0.00 0.00 0.00 91 1024.9
20200712231707 54 316 0.0 2.0 0.00 0.00 0.00 91 1025.0
20200712231603 54 316 0.0 2.0 0.00 0.00 0.00 91 1024.9
20200712231504 54 316 0.0 2.0 0.00 0.00 0.00 91 1025.0
20200712231403 54 316 0.0 2.0 0.00 0.00 0.00 91 1025.0
20200712231305 54 0 0.0 0.0 0.00 0.00 0.00 91 1025.0
20200712231204 54 0 0.0 0.0 0.00 0.00 0.00 91 1025.0
20200712231104 54 316 0.0 1.0 0.00 0.00 0.00 91 1025.0
20200712231004 54 316 0.0 1.0 0.00 0.00 0.00 91 1025.0
20200712230904 54 316 0.0 1.0 0.00 0.00 0.00 91 1025.0
20200712230804 54 316 0.0 1.0 0.00 0.00 0.00 91 1025.0
20200712230706 54 316 0.0 1.0 0.00 0.00 0.00 91 1025.0
20200712230603 54 316 0.0 2.0 0.00 0.00 0.00 91 1025.0
20200712230505 54 316 1.0 4.0 0.00 0.00 0.00 91 1025.1
20200712230404 54 315 2.0 5.0 0.00 0.00 0.00 91 1025.1
20200712230306 54 313 3.0 5.0 0.00 0.00 0.00 91 1025.1
20200712230204 54 311 4.0 5.0 0.00 0.00 0.00 91 1025.1
20200712230104 54 308 4.0 5.0 0.00 0.00 0.00 91 1025.1
20200712230007 55 306 4.0 5.0 0.00 0.00 0.00 91 1025.1
20200712225904 55 305 3.0 5.0 0.00 0.00 0.00 90 1025.1
20200712225804 55 304 3.0 5.0 0.00 0.00 0.00 90 1025.1
20200712225704 55 302 3.0 4.0 0.00 0.00 0.00 90 1025.1
20200712225604 55 299 3.0 5.0 0.00 0.00 0.00 90 1025.1
20200712225507 55 289 4.0 5.0 0.00 0.00 0.00 91 1025.1
20200712225404 55 277 4.0 5.0 0.00 0.00 0.00 91 1025.0
20200712225305 55 271 5.0 7.0 0.00 0.00 0.00 91 1025.0
20200712225204 55 273 5.0 7.0 0.00 0.00 0.00 91 1025.0
20200712225111 55 275 5.0 7.0 0.00 0.00 0.00 91 1025.0
20200712225005 55 273 4.0 6.0 0.00 0.00 0.00 91 1025.0
20200712224907 54 269 4.0 5.0 0.00 0.00 0.00 91 1025.0
20200712224804 54 262 3.0 5.0 0.00 0.00 0.00 90 1025.0
20200712224704 54 254 1.0 5.0 0.00 0.00 0.00 90 1025.0
20200712224604 54 214 0.0 4.0 0.00 0.00 0.00 90 1024.9
20200712224506 54 0 0.0 0.0 0.00 0.00 0.00 90 1024.9
20200712224404 54 0 0.0 0.0 0.00 0.00 0.00 90 1024.9
20200712224304 55 0 0.0 0.0 0.00 0.00 0.00 90 1025.0
20200712224205 55 0 0.0 0.0 0.00 0.00 0.00 90 1025.0
20200712224103 55 125 0.0 2.0 0.00 0.00 0.00 90 1024.9
20200712224004 55 124 0.0 2.0 0.00 0.00 0.00 90 1024.9
20200712223904 55 124 1.0 2.0 0.00 0.00 0.00 90 1025.0
20200712223804 55 122 1.0 3.0 0.00 0.00 0.00 90 1024.9
20200712223704 55 122 1.0 3.0 0.00 0.00 0.00 90 1024.9
20200712223607 55 132 1.0 4.0 0.00 0.00 0.00 90 1024.9
20200712223503 55 138 1.0 4.0 0.00 0.00 0.00 90 1025.0
20200712223405 55 147 1.0 5.0 0.00 0.00 0.00 90 1024.9
20200712223304 55 139 1.0 5.0 0.00 0.00 0.00 90 1024.9
20200712223204 55 135 1.0 5.0 0.00 0.00 0.00 90 1024.9
20200712223103 55 119 1.0 4.0 0.00 0.00 0.00 90 1024.9
20200712223007 55 121 0.0 2.0 0.00 0.00 0.00 90 1024.9
20200712222903 55 133 1.0 4.0 0.00 0.00 0.00 90 1024.9
20200712222812 55 138 1.0 4.0 0.00 0.00 0.00 90 1025.0
20200712222703 55 149 1.0 4.0 0.00 0.00 0.00 90 1024.9
20200712222605 55 144 1.0 4.0 0.00 0.00 0.00 90 1024.9
20200712222506 55 135 1.0 4.0 0.00 0.00 0.00 90 1025.0
20200712222404 55 121 1.0 4.0 0.00 0.00 0.00 90 1025.0
20200712222305 55 124 1.0 4.0 0.00 0.00 0.00 90 1025.0
20200712222204 55 133 1.0 5.0 0.00 0.00 0.00 90 1025.0
20200712222104 55 132 1.0 5.0 0.00 0.00 0.00 90 1025.1
20200712222005 55 125 1.0 5.0 0.00 0.00 0.00 90 1025.1
20200712221903 55 111 1.0 4.0 0.00 0.00 0.00 90 1025.0
20200712221804 55 116 1.0 4.0 0.00 0.00 0.00 90 1025.1
20200712221704 55 125 1.0 3.0 0.00 0.00 0.00 90 1025.0
20200712221606 56 125 1.0 3.0 0.00 0.00 0.00 90 1025.1
20200712221503 56 125 0.0 3.0 0.00 0.00 0.00 89 1025.0
20200712221404 56 125 0.0 3.0 0.00 0.00 0.00 89 1025.1
20200712221303 56 124 0.0 3.0 0.00 0.00 0.00 90 1025.1
20200712221205 56 124 0.0 1.0 0.00 0.00 0.00 90 1025.1
20200712221103 56 125 0.0 2.0 0.00 0.00 0.00 90 1025.1
20200712221004 56 121 1.0 4.0 0.00 0.00 0.00 90 1025.1
20200712220903 56 117 1.0 4.0 0.00 0.00 0.00 89 1025.1
20200712220804 56 114 1.0 4.0 0.00 0.00 0.00 89 1025.2
20200712220704 56 102 0.0 2.0 0.00 0.00 0.00 89 1025.1
20200712220604 56 101 0.0 2.0 0.00 0.00 0.00 89 1025.1
20200712220504 56 101 0.0 2.0 0.00 0.00 0.00 89 1025.1
20200712220404 56 101 0.0 2.0 0.00 0.00 0.00 89 1025.1
20200712220304 56 100 0.0 2.0 0.00 0.00 0.00 89 1025.1
20200712220205 56 101 1.0 4.0 0.00 0.00 0.00 89 1025.1
20200712220103 56 105 1.0 4.0 0.00 0.00 0.00 89 1025.2
20200712220006 56 111 1.0 4.0 0.00 0.00 0.00 89 1025.1
20200712215904 56 117 1.0 4.0 0.00 0.00 0.00 89 1025.2
20200712215805 56 120 1.0 3.0 0.00 0.00 0.00 89 1025.2
20200712215703 56 115 1.0 3.0 0.00 0.00 0.00 89 1025.1
20200712215607 56 110 1.0 2.0 0.00 0.00 0.00 89 1025.2
20200712215504 56 111 1.0 3.0 0.00 0.00 0.00 89 1025.2
20200712215404 56 111 1.0 3.0 0.00 0.00 0.00 89 1025.2
20200712215303 56 110 1.0 3.0 0.00 0.00 0.00 89 1025.2
20200712215204 56 110 2.0 4.0 0.00 0.00 0.00 89 1025.2
20200712215103 56 110 2.0 4.0 0.00 0.00 0.00 89 1025.3
20200712215004 56 109 2.0 4.0 0.00 0.00 0.00 89 1025.2
20200712214904 56 109 2.0 4.0 0.00 0.00 0.00 89 1025.3
20200712214804 56 112 1.0 4.0 0.00 0.00 0.00 89 1025.3
20200712214703 56 118 1.0 4.0 0.00 0.00 0.00 89 1025.3
20200712214605 56 126 1.0 2.0 0.00 0.00 0.00 89 1025.3
20200712214505 56 127 1.0 2.0 0.00 0.00 0.00 89 1025.3
20200712214404 56 127 0.0 2.0 0.00 0.00 0.00 89 1025.3
20200712214304 56 126 0.0 2.0 0.00 0.00 0.00 89 1025.3
20200712214204 56 126 0.0 1.0 0.00 0.00 0.00 88 1025.3
20200712214103 56 126 0.0 2.0 0.00 0.00 0.00 88 1025.3
20200712214004 56 127 0.0 4.0 0.00 0.00 0.00 88 1025.3
20200712213905 56 127 1.0 4.0 0.00 0.00 0.00 88 1025.3
20200712213805 56 131 1.0 4.0 0.00 0.00 0.00 88 1025.3
20200712213703 56 127 1.0 4.0 0.00 0.00 0.00 88 1025.3
20200712213604 56 121 1.0 4.0 0.00 0.00 0.00 88 1025.3
20200712213505 57 116 1.0 4.0 0.00 0.00 0.00 88 1025.3
20200712213406 57 124 1.0 4.0 0.00 0.00 0.00 88 1025.3
20200712213303 57 130 1.0 4.0 0.00 0.00 0.00 88 1025.4
20200712213205 57 135 2.0 5.0 0.00 0.00 0.00 88 1025.4
20200712213105 57 134 1.0 5.0 0.00 0.00 0.00 88 1025.3
20200712213012 57 131 1.0 5.0 0.00 0.00 0.00 88 1025.3
20200712212904 57 130 1.0 3.0 0.00 0.00 0.00 88 1025.4
20200712212805 57 131 1.0 4.0 0.00 0.00 0.00 88 1025.4
20200712212703 57 142 1.0 4.0 0.00 0.00 0.00 88 1025.4
20200712212604 57 163 0.0 4.0 0.00 0.00 0.00 88 1025.4
20200712212504 57 164 0.0 2.0 0.00 0.00 0.00 88 1025.4
20200712212406 57 136 1.0 4.0 0.00 0.00 0.00 88 1025.4
20200712212305 57 134 1.0 4.0 0.00 0.00 0.00 88 1025.5
20200712212205 57 127 2.0 4.0 0.00 0.00 0.00 87 1025.5
20200712212104 57 126 1.0 4.0 0.00 0.00 0.00 87 1025.5
20200712212004 57 126 1.0 4.0 0.00 0.00 0.00 87 1025.4
20200712211904 57 125 1.0 5.0 0.00 0.00 0.00 87 1025.5
20200712211805 57 124 1.0 5.0 0.00 0.00 0.00 87 1025.5
20200712211704 57 123 1.0 5.0 0.00 0.00 0.00 87 1025.4
20200712211604 57 120 0.0 2.0 0.00 0.00 0.00 87 1025.5
20200712211507 57 121 0.0 2.0 0.00 0.00 0.00 87 1025.5
20200712211408 57 120 0.0 2.0 0.00 0.00 0.00 87 1025.5
20200712211303 57 120 0.0 2.0 0.00 0.00 0.00 87 1025.5
20200712211204 57 120 0.0 1.0 0.00 0.00 0.00 87 1025.5
20200712211105 58 120 0.0 2.0 0.00 0.00 0.00 87 1025.5
20200712211004 58 120 0.0 2.0 0.00 0.00 0.00 87 1025.5
20200712210904 58 127 1.0 2.0 0.00 0.00 0.00 87 1025.5
20200712210805 58 131 1.0 2.0 0.00 0.00 0.00 87 1025.5
20200712210704 58 134 1.0 2.0 0.00 0.00 0.00 86 1025.5
20200712210605 58 136 1.0 4.0 0.00 0.00 0.00 86 1025.5
20200712210503 58 136 1.0 4.0 0.00 0.00 0.00 86 1025.5
20200712210404 58 137 2.0 5.0 0.00 0.00 0.00 86 1025.5
20200712210309 58 139 2.0 5.0 0.00 0.00 0.00 86 1025.5
20200712210204 58 140 2.0 5.0 0.00 0.00 0.00 86 1025.5
20200712210105 58 137 2.0 5.0 0.00 0.00 0.00 86 1025.5
20200712210005 58 132 3.0 6.0 0.00 0.00 0.00 86 1025.5
20200712205904 58 130 2.0 6.0 0.00 0.00 0.00 86 1025.5
20200712205804 58 134 1.0 5.0 0.00 0.00 0.00 86 1025.5
20200712205704 58 142 1.0 5.0 0.00 0.00 0.00 86 1025.5
20200712205604 58 136 1.0 5.0 0.00 0.00 0.00 86 1025.5
20200712205504 58 133 3.0 7.0 0.00 0.00 0.00 86 1025.5
20200712205404 58 134 2.0 7.0 0.00 0.00 0.00 86 1025.5
20200712205303 58 140 2.0 7.0 0.00 0.00 0.00 86 1025.5
20200712205206 58 148 1.0 4.0 0.00 0.00 0.00 86 1025.5
20200712205104 58 142 1.0 4.0 0.00 0.00 0.00 86 1025.5
20200712205005 58 142 1.0 4.0 0.00 0.00 0.00 86 1025.5
20200712204904 58 142 1.0 4.0 0.00 0.00 0.00 86 1025.5
20200712204805 58 142 1.0 3.0 0.00 0.00 0.00 85 1025.5
20200712204704 58 149 1.0 3.0 0.00 0.00 0.00 85 1025.5
20200712204604 58 152 1.0 3.0 0.00 0.00 0.00 85 1025.5
20200712204508 59 156 1.0 3.0 0.00 0.00 0.00 85 1025.5
20200712204404 59 143 1.0 5.0 0.00 0.00 0.00 85 1025.5
20200712204303 59 138 1.0 5.0 0.00 0.00 0.00 85 1025.5
20200712204205 59 137 2.0 5.0 0.00 0.00 0.00 85 1025.5
20200712204103 59 139 1.0 5.0 0.00 0.00 0.00 85 1025.5
20200712204004 59 136 1.0 5.0 0.00 0.00 0.00 85 1025.5
20200712203903 59 115 0.0 3.0 0.00 0.00 0.00 84 1025.5
20200712203804 59 113 1.0 3.0 0.00 0.00 0.00 84 1025.5
20200712203704 59 118 1.0 3.0 0.00 0.00 0.00 84 1025.5
20200712203604 59 124 1.0 3.0 0.00 0.00 0.00 84 1025.5
20200712203504 59 136 1.0 2.0 0.00 0.00 0.00 84 1025.5
20200712203404 59 136 1.0 2.0 0.00 0.00 0.00 84 1025.5
20200712203304 59 138 1.0 4.0 0.00 0.00 0.00 84 1025.5
20200712203204 59 139 1.0 4.0 0.00 0.00 0.00 84 1025.5
20200712203104 59 139 1.0 4.0 0.00 0.00 0.00 83 1025.5
20200712203006 59 139 1.0 4.0 0.00 0.00 0.00 83 1025.5
20200712202903 59 141 2.0 6.0 0.00 0.00 0.00 83 1025.5
20200712202804 60 139 2.0 6.0 0.00 0.00 0.00 83 1025.5
20200712202704 60 137 2.0 5.0 0.00 0.00 0.00 83 1025.4
20200712202604 60 131 2.0 5.0 0.00 0.00 0.00 82 1025.4
20200712202506 60 131 2.0 5.0 0.00 0.00 0.00 82 1025.5
20200712202406 60 122 2.0 5.0 0.00 0.00 0.00 82 1025.5
20200712202304 60 117 1.0 4.0 0.00 0.00 0.00 82 1025.4
20200712202205 60 127 2.0 7.0 0.00 0.00 0.00 82 1025.5
20200712202104 60 133 1.0 7.0 0.00 0.00 0.00 81 1025.4
20200712202004 60 134 1.0 7.0 0.00 0.00 0.00 81 1025.5
20200712201904 60 153 1.0 5.0 0.00 0.00 0.00 81 1025.5
20200712201806 60 145 1.0 5.0 0.00 0.00 0.00 80 1025.5
20200712201710 60 137 2.0 5.0 0.00 0.00 0.00 80 1025.5
20200712201604 60 126 2.0 5.0 0.00 0.00 0.00 80 1025.5
20200712201511 61 117 1.0 4.0 0.00 0.00 0.00 80 1025.4
20200712201405 61 116 1.0 4.0 0.00 0.00 0.00 79 1025.4
20200712201303 61 114 1.0 4.0 0.00 0.00 0.00 79 1025.5
20200712201204 61 116 1.0 4.0 0.00 0.00 0.00 79 1025.4
20200712201104 61 115 1.0 4.0 0.00 0.00 0.00 79 1025.4
20200712201004 61 118 1.0 4.0 0.00 0.00 0.00 79 1025.4
20200712200903 61 120 1.0 3.0 0.00 0.00 0.00 78 1025.4
20200712200804 62 123 1.0 3.0 0.00 0.00 0.00 78 1025.4
20200712200704 62 126 1.0 4.0 0.00 0.00 0.00 78 1025.4
20200712200605 62 133 1.0 5.0 0.00 0.00 0.00 77 1025.4
20200712200503 62 122 2.0 5.0 0.00 0.00 0.00 77 1025.4
20200712200404 62 112 2.0 5.0 0.00 0.00 0.00 77 1025.4
20200712200304 62 105 2.0 5.0 0.00 0.00 0.00 76 1025.4
20200712200204 62 108 2.0 5.0 0.00 0.00 0.00 76 1025.4
20200712200104 62 113 1.0 3.0 0.00 0.00 0.00 76 1025.4
20200712200006 63 111 1.0 4.0 0.00 0.00 0.00 75 1025.4
20200712195903 63 114 2.0 5.0 0.00 0.00 0.00 75 1025.4
20200712195804 63 118 2.0 5.0 0.00 0.00 0.00 74 1025.4
20200712195704 63 126 1.0 5.0 0.00 0.00 0.00 74 1025.4
20200712195604 63 126 1.0 3.0 0.00 0.00 0.00 74 1025.4
20200712195503 64 120 1.0 3.0 0.00 0.00 0.00 73 1025.4
20200712195404 64 118 1.0 3.0 0.00 0.00 0.00 73 1025.4
20200712195304 64 111 1.0 6.0 0.00 0.00 0.00 72 1025.4
20200712195206 64 112 1.0 6.0 0.00 0.00 0.00 72 1025.4
20200712195103 64 114 1.0 6.0 0.00 0.00 0.00 71 1025.4
20200712195004 65 133 1.0 5.0 0.00 0.00 0.00 71 1025.4
20200712194904 65 132 1.0 5.0 0.00 0.00 0.00 71 1025.4
20200712194804 65 123 2.0 5.0 0.00 0.00 0.00 70 1025.3
20200712194703 65 110 2.0 5.0 0.00 0.00 0.00 69 1025.3
20200712194605 65 105 3.0 6.0 0.00 0.00 0.00 68 1025.4
20200712194504 65 97 3.0 6.0 0.00 0.00 0.00 68 1025.3
20200712194404 65 97 2.0 6.0 0.00 0.00 0.00 67 1025.3
20200712194304 66 98 1.0 5.0 0.00 0.00 0.00 66 1025.3
20200712194204 66 0 0.0 0.0 0.00 0.00 0.00 66 1025.3
20200712194104 66 0 0.0 0.0 0.00 0.00 0.00 66 1025.3
20200712194004 66 0 0.0 0.0 0.00 0.00 0.00 65 1025.3
20200712193904 66 0 0.0 0.0 0.00 0.00 0.00 65 1025.3
20200712193804 66 0 0.0 0.0 0.00 0.00 0.00 64 1025.3
20200712193703 66 145 0.0 1.0 0.00 0.00 0.00 64 1025.3
20200712193604 66 145 0.0 1.0 0.00 0.00 0.00 64 1025.3
20200712193504 66 145 0.0 1.0 0.00 0.00 0.00 64 1025.3
20200712193404 66 144 0.0 1.0 0.00 0.00 0.00 64 1025.2
20200712193303 67 146 0.0 4.0 0.00 0.00 0.00 64 1025.3
20200712193204 67 150 1.0 4.0 0.00 0.00 0.00 63 1025.2
20200712193103 67 153 1.0 4.0 0.00 0.00 0.00 63 1025.3
20200712193008 67 161 0.0 1.0 0.00 0.00 0.00 63 1025.3
20200712192905 67 161 0.0 1.0 0.00 0.00 0.00 63 1025.2
20200712192805 67 162 0.0 2.0 0.00 0.00 0.00 62 1025.3
20200712192703 67 162 0.0 2.0 0.00 0.00 0.00 62 1025.3
20200712192604 67 161 0.0 2.0 0.00 0.00 0.00 62 1025.3
20200712192504 67 0 0.0 0.0 0.00 0.00 0.00 62 1025.3
20200712192405 67 0 0.0 0.0 0.00 0.00 0.00 62 1025.3
20200712192303 67 0 0.0 0.0 0.00 0.00 0.00 62 1025.3
20200712192204 67 0 0.0 0.0 0.00 0.00 0.00 62 1025.3
20200712192104 67 0 0.0 0.0 0.00 0.00 0.00 62 1025.3
20200712192004 67 0 0.0 0.0 0.00 0.00 0.00 62 1025.3
20200712191903 67 0 0.0 0.0 0.00 0.00 0.00 62 1025.3
20200712191805 67 0 0.0 0.0 0.00 0.00 0.00 62 1025.3
20200712191704 67 0 0.0 0.0 0.00 0.00 0.00 62 1025.4
20200712191604 67 0 0.0 0.0 0.00 0.00 0.00 61 1025.3
20200712191504 67 0 0.0 0.0 0.00 0.00 0.00 61 1025.4
20200712191405 67 0 0.0 0.0 0.00 0.00 0.00 61 1025.4
20200712191303 67 0 0.0 0.0 0.00 0.00 0.00 61 1025.4
20200712191204 67 0 0.0 0.0 0.00 0.00 0.00 61 1025.4
20200712191104 67 161 0.0 1.0 0.00 0.00 0.00 60 1025.4
20200712191004 67 161 0.0 1.0 0.00 0.00 0.00 60 1025.4
20200712190904 67 161 0.0 1.0 0.00 0.00 0.00 60 1025.4
20200712190804 67 162 0.0 1.0 0.00 0.00 0.00 60 1025.4
20200712190705 67 161 0.0 3.0 0.00 0.00 0.00 60 1025.4
20200712190604 68 161 0.0 3.0 0.00 0.00 0.00 59 1025.4
20200712190503 68 162 0.0 2.0 0.00 0.00 0.00 59 1025.4
20200712190405 68 162 0.0 1.0 0.00 0.00 0.00 59 1025.4
20200712190305 68 162 0.0 1.0 0.00 0.00 0.00 59 1025.4
20200712190204 68 162 0.0 1.0 0.00 0.00 0.00 59 1025.4
20200712190103 68 162 0.0 2.0 0.00 0.00 0.00 59 1025.4
20200712190006 68 162 0.0 2.0 0.00 0.00 0.00 59 1025.4
20200712185904 68 162 1.0 4.0 0.00 0.00 0.00 59 1025.4
20200712185804 68 162 1.0 4.0 0.00 0.00 0.00 59 1025.4
20200712185703 68 162 1.0 4.0 0.00 0.00 0.00 58 1025.5
20200712185604 68 162 1.0 4.0 0.00 0.00 0.00 58 1025.4
20200712185505 68 163 0.0 3.0 0.00 0.00 0.00 58 1025.4
20200712185406 68 163 0.0 2.0 0.00 0.00 0.00 58 1025.5
20200712185307 68 162 1.0 3.0 0.00 0.00 0.00 58 1025.5
20200712185205 68 163 1.0 4.0 0.00 0.00 0.00 58 1025.5
20200712185103 68 163 1.0 4.0 0.00 0.00 0.00 58 1025.6
20200712185005 68 163 0.0 4.0 0.00 0.00 0.00 58 1025.5
20200712184903 68 0 0.0 0.0 0.00 0.00 0.00 58 1025.5
20200712184804 68 164 0.0 1.0 0.00 0.00 0.00 58 1025.5
20200712184703 68 157 1.0 5.0 0.00 0.00 0.00 57 1025.5
20200712184604 68 149 2.0 5.0 0.00 0.00 0.00 57 1025.5
20200712184504 68 153 3.0 6.0 0.00 0.00 0.00 57 1025.5
20200712184409 68 151 3.0 7.0 0.00 0.00 0.00 57 1025.5
20200712184304 68 152 2.0 7.0 0.00 0.00 0.00 57 1025.5
20200712184204 68 148 2.0 7.0 0.00 0.00 0.00 57 1025.4
20200712184105 69 153 2.0 6.0 0.00 0.00 0.00 56 1025.5
20200712184005 69 159 3.0 6.0 0.00 0.00 0.00 56 1025.5
20200712183903 69 173 2.0 5.0 0.00 0.00 0.00 56 1025.5
20200712183804 69 165 3.0 6.0 0.00 0.00 0.00 55 1025.5
20200712183704 69 162 3.0 7.0 0.00 0.00 0.00 55 1025.5
20200712183604 69 161 3.0 7.0 0.00 0.00 0.00 55 1025.5
20200712183513 69 169 2.0 6.0 0.00 0.00 0.00 56 1025.5
20200712183408 69 174 1.0 5.0 0.00 0.00 0.00 56 1025.5
20200712183303 69 174 2.0 5.0 0.00 0.00 0.00 56 1025.6
20200712183209 69 173 2.0 5.0 0.00 0.00 0.00 55 1025.6
20200712183104 69 173 3.0 5.0 0.00 0.00 0.00 55 1025.5
20200712183004 69 177 3.0 5.0 0.00 0.00 0.00 55 1025.6
20200712182903 69 187 3.0 5.0 0.00 0.00 0.00 57 1025.5
20200712182805 69 196 3.0 6.0 0.00 0.00 0.00 57 1025.5
20200712182704 69 196 3.0 6.0 0.00 0.00 0.00 58 1025.6
20200712182604 69 191 4.0 7.0 0.00 0.00 0.00 58 1025.5
20200712182503 69 188 4.0 7.0 0.00 0.00 0.00 57 1025.6
20200712182405 69 188 3.0 7.0 0.00 0.00 0.00 57 1025.6
20200712182304 69 186 3.0 5.0 0.00 0.00 0.00 56 1025.6
20200712182204 69 181 2.0 5.0 0.00 0.00 0.00 56 1025.6
20200712182105 69 167 2.0 5.0 0.00 0.00 0.00 56 1025.6
20200712182011 68 171 2.0 5.0 0.00 0.00 0.00 56 1025.6
20200712181904 68 184 5.0 8.0 0.00 0.00 0.00 56 1025.6
20200712181804 68 189 5.0 8.0 0.00 0.00 0.00 56 1025.6
20200712181706 68 193 5.0 8.0 0.00 0.00 0.00 56 1025.6
20200712181605 68 191 5.0 9.0 0.00 0.00 0.00 56 1025.7
20200712181506 68 195 4.0 9.0 0.00 0.00 0.00 55 1025.7
20200712181404 68 196 4.0 9.0 0.00 0.00 0.00 54 1025.6
20200712181304 68 201 3.0 8.0 0.00 0.00 0.00 54 1025.6
20200712181204 68 205 4.0 8.0 0.00 0.00 0.00 53 1025.7
20200712181104 68 211 5.0 8.0 0.00 0.00 0.00 54 1025.7
20200712181005 68 220 4.0 7.0 0.00 0.00 0.00 54 1025.7
20200712180904 68 218 4.0 6.0 0.00 0.00 0.00 53 1025.7
20200712180804 68 212 5.0 6.0 0.00 0.00 0.00 55 1025.7
20200712180703 68 203 5.0 8.0 0.00 0.00 0.00 55 1025.7
20200712180605 68 199 6.0 9.0 0.00 0.00 0.00 54 1025.7
20200712180504 68 195 5.0 9.0 0.00 0.00 0.00 54 1025.7